GFSFLT1_prec_precacc24_009.txt.gz
Total_Precipitation_Accumulation
0.01 0.01 0.01 0.00 0.00 0.00 0.03 0.08 0.05 0.06 0.02 0.00 0.00 0.00 0.00 0.00 0.00 0.00 0.00 0.00 0.00 0.00 0.00 0.00 0.00 0.00 0.00 0.00 0.00 0.00 0.00 0.00
0.02 0.02 0.02 0.00 0.00 0.02 0.05 0.03 0.01 0.00 0.00 0.00 0.00 0.00 0.00 0.00 0.00 0.00 0.00 0.00 0.00 0.00 0.00 0.00 0.00 0.00 0.00 0.00 0.00 0.00 0.00 0.00
0.01 0.00 0.00 0.01 0.02 0.01 0.00 0.00 0.00 0.00 0.00 0.00 0.00 0.00 0.00 0.00 0.00 0.00 0.00 0.00 0.00 0.00 0.00 0.00 0.00 0.00 0.00 0.00 0.00 0.00 0.00 0.00
0.00 0.00 0.00 0.01 0.00 0.00 0.00 0.00 0.00 0.00 0.00 0.00 0.00 0.00 0.00 0.00 0.00 0.00 0.00 0.00 0.00 0.00 0.00 0.00 0.00 0.00 0.00 0.00 0.00 0.00 0.00 0.00
0.00 0.00 0.00 0.00 0.00 0.00 0.00 0.00 0.00 0.00 0.00 0.00 0.00 0.00 0.00 0.00 0.00 0.00 0.00 0.00 0.00 0.00 0.00 0.00 0.00 0.00 0.00 0.00 0.00 0.00 0.00 0.00
0.00 0.00 0.00 0.00 0.00 0.00 0.00 0.00 0.00 0.00 0.00 0.00 0.00 0.00 0.00 0.00 0.00 0.00 0.00 0.00 0.00 0.00 0.00 0.00 0.00 0.00 0.00 0.00 0.00 0.00 0.00 0.00
0.00 0.00 0.00 0.00 0.00 0.00 0.00 0.00 0.00 0.00 0.00 0.00 0.00 0.00 0.00 0.00 0.00 0.00 0.00 0.00 0.00 0.00 0.00 0.00 0.00 0.00 0.00 0.00 0.00 0.00 0.00 0.00
0.00 0.00 0.00 0.00 0.00 0.00 0.00 0.00 0.00 0.00 0.00 0.00 0.00 0.00 0.00 0.00 0.00 0.00 0.00 0.00 0.00 0.00 0.00 0.00 0.00 0.00 0.00 0.00 0.00 0.00 0.00 0.00
0.00 0.00 0.00 0.00 0.00 0.00 0.00 0.00 0.00 0.00 0.00 0.00 0.00 0.00 0.00 0.00 0.00 0.00 0.00 0.00 0.00 0.00 0.00 0.00 0.00 0.00 0.00 0.00 0.01 0.01 0.00 0.00
0.00 0.00 0.00 0.00 0.00 0.00 0.00 0.00 0.00 0.00 0.00 0.00 0.00 0.00 0.00 0.00 0.00 0.00 0.00 0.00 0.00 0.00 0.00 0.00 0.00 0.00 0.02 0.02 0.01 0.00 0.00 0.00
0.00 0.00 0.00 0.00 0.00 0.00 0.00 0.00 0.00 0.00 0.00 0.00 0.00 0.00 0.00 0.00 0.00 0.00 0.00 0.00 0.00 0.00 0.00 0.00 0.00 0.01 0.00 0.00 0.00 0.00 0.00 0.00
0.00 0.00 0.00 0.00 0.00 0.00 0.00 0.00 0.00 0.00 0.00 0.00 0.00 0.00 0.00 0.00 0.00 0.00 0.00 0.00 0.00 0.00 0.00 0.00 0.00 0.00 0.00 0.01 0.00 0.00 0.00 0.00
0.00 0.00 0.00 0.00 0.00 0.00 0.00 0.00 0.00 0.00 0.00 0.00 0.00 0.00 0.00 0.00 0.00 0.00 0.00 0.00 0.00 0.00 0.00 0.00 0.00 0.00 0.00 0.00 0.00 0.00 0.00 0.00
0.00 0.00 0.00 0.00 0.00 0.00 0.00 0.00 0.00 0.00 0.00 0.00 0.00 0.00 0.00 0.00 0.00 0.00 0.00 0.00 0.00 0.00 0.00 0.00 0.00 0.00 0.00 0.00 0.00 0.00 0.00 0.00
0.00 0.00 0.00 0.00 0.00 0.00 0.00 0.00 0.00 0.00 0.00 0.00 0.00 0.00 0.00 0.00 0.00 0.00 0.00 0.00 0.00 0.00 0.00 0.00 0.00 0.00 0.00 0.00 0.00 0.00 0.00 0.00
0.00 0.00 0.00 0.00 0.00 0.00 0.00 0.00 0.00 0.00 0.00 0.00 0.00 0.00 0.00 0.00 0.00 0.00 0.00 0.00 0.00 0.00 0.00 0.00 0.00 0.00 0.00 0.00 0.00 0.00 0.00 0.00
0.00 0.00 0.00 0.00 0.00 0.00 0.00 0.00 0.00 0.00 0.00 0.00 0.00 0.00 0.00 0.00 0.00 0.00 0.00 0.00 0.00 0.00 0.00 0.01 0.01 0.00 0.00 0.00 0.00 0.00 0.00 0.00
0.00 0.00 0.00 0.00 0.00 0.00 0.00 0.00 0.00 0.00 0.00 0.00 0.00 0.00 0.00 0.00 0.00 0.00 0.00 0.00 0.00 0.00 0.01 0.01 0.01 0.02 0.00 0.00 0.00 0.00 0.00 0.00
0.00 0.00 0.00 0.00 0.00 0.00 0.00 0.00 0.00 0.00 0.00 0.00 0.00 0.00 0.00 0.00 0.00 0.00 0.00 0.00 0.00 0.00 0.00 0.00 0.00 0.00 0.00 0.00 0.00 0.00 0.00 0.00

GFSFLT1_prec_precacc24_015.txt.gz
Total_Precipitation_Accumulation
0.01 0.01 0.01 0.02 0.02 0.00 0.03 0.08 0.05 0.06 0.02 0.01 0.00 0.00 0.00 0.00 0.00 0.00 0.00 0.00 0.00 0.00 0.00 0.00 0.00 0.00 0.00 0.00 0.00 0.00 0.00 0.00
0.03 0.02 0.02 0.01 0.06 0.02 0.05 0.03 0.01 0.00 0.00 0.00 0.00 0.00 0.00 0.00 0.00 0.00 0.00 0.00 0.00 0.00 0.00 0.00 0.00 0.00 0.00 0.00 0.00 0.00 0.00 0.00
0.01 0.00 0.00 0.01 0.04 0.03 0.00 0.00 0.00 0.01 0.01 0.00 0.00 0.00 0.00 0.00 0.00 0.00 0.00 0.00 0.00 0.00 0.00 0.00 0.00 0.00 0.00 0.00 0.00 0.00 0.00 0.00
0.00 0.00 0.00 0.01 0.01 0.01 0.01 0.01 0.00 0.00 0.00 0.00 0.00 0.00 0.00 0.00 0.00 0.00 0.00 0.00 0.00 0.00 0.00 0.00 0.00 0.00 0.00 0.00 0.00 0.00 0.00 0.00
0.00 0.01 0.01 0.02 0.03 0.02 0.02 0.00 0.00 0.00 0.00 0.00 0.00 0.00 0.00 0.00 0.00 0.00 0.00 0.00 0.00 0.00 0.00 0.00 0.00 0.00 0.00 0.00 0.00 0.00 0.00 0.00
0.00 0.00 0.01 0.02 0.02 0.02 0.01 0.00 0.00 0.00 0.00 0.00 0.00 0.00 0.00 0.00 0.00 0.00 0.00 0.00 0.00 0.00 0.00 0.00 0.00 0.00 0.00 0.00 0.00 0.00 0.00 0.00
0.00 0.00 0.01 0.02 0.02 0.01 0.00 0.00 0.00 0.00 0.00 0.00 0.00 0.00 0.00 0.00 0.00 0.00 0.00 0.00 0.00 0.00 0.00 0.00 0.00 0.00 0.00 0.00 0.00 0.00 0.00 0.00
0.00 0.00 0.00 0.00 0.01 0.00 0.00 0.00 0.00 0.00 0.00 0.00 0.00 0.00 0.00 0.00 0.00 0.00 0.00 0.00 0.00 0.00 0.00 0.00 0.00 0.00 0.00 0.00 0.00 0.00 0.00 0.00
0.00 0.01 0.00 0.00 0.00 0.00 0.00 0.00 0.00 0.00 0.00 0.00 0.00 0.00 0.00 0.00 0.00 0.00 0.00 0.00 0.00 0.00 0.00 0.00 0.00 0.00 0.00 0.00 0.01 0.01 0.01 0.01
0.05 0.02 0.00 0.00 0.00 0.00 0.00 0.00 0.00 0.00 0.00 0.00 0.00 0.00 0.00 0.00 0.00 0.00 0.00 0.00 0.00 0.00 0.00 0.00 0.00 0.00 0.02 0.03 0.01 0.00 0.01 0.00
0.00 0.00 0.00 0.00 0.00 0.00 0.00 0.00 0.00 0.00 0.00 0.00 0.00 0.00 0.00 0.00 0.00 0.00 0.00 0.00 0.00 0.00 0.00 0.00 0.00 0.01 0.00 0.00 0.00 0.00 0.00 0.00
0.00 0.00 0.00 0.00 0.00 0.00 0.00 0.00 0.00 0.00 0.00 0.00 0.00 0.00 0.00 0.00 0.00 0.00 0.00 0.00 0.00 0.00 0.00 0.00 0.00 0.00 0.00 0.01 0.00 0.00 0.00 0.00
0.00 0.00 0.00 0.00 0.00 0.00 0.00 0.00 0.00 0.00 0.00 0.00 0.00 0.00 0.00 0.00 0.00 0.00 0.00 0.00 0.00 0.00 0.00 0.00 0.00 0.00 0.00 0.00 0.00 0.00 0.00 0.00
0.00 0.00 0.00 0.00 0.00 0.00 0.00 0.00 0.00 0.00 0.00 0.00 0.00 0.00 0.00 0.00 0.00 0.00 0.00 0.00 0.00 0.00 0.00 0.00 0.00 0.00 0.00 0.00 0.00 0.00 0.00 0.01
0.00 0.00 0.00 0.00 0.00 0.00 0.00 0.00 0.00 0.00 0.00 0.00 0.00 0.00 0.00 0.00 0.00 0.00 0.00 0.00 0.00 0.00 0.00 0.00 0.00 0.00 0.00 0.00 0.00 0.00 0.00 0.00
0.00 0.00 0.00 0.00 0.00 0.00 0.00 0.00 0.00 0.00 0.00 0.00 0.00 0.00 0.00 0.00 0.00 0.00 0.00 0.00 0.00 0.00 0.00 0.00 0.00 0.00 0.00 0.00 0.00 0.00 0.00 0.00
0.00 0.00 0.01 0.00 0.00 0.00 0.00 0.00 0.00 0.00 0.00 0.00 0.00 0.00 0.00 0.00 0.00 0.00 0.00 0.00 0.00 0.00 0.00 0.01 0.01 0.01 0.00 0.00 0.00 0.00 0.00 0.00
0.00 0.00 0.00 0.00 0.01 0.00 0.00 0.00 0.00 0.00 0.00 0.00 0.00 0.00 0.00 0.00 0.00 0.00 0.00 0.00 0.00 0.00 0.01 0.01 0.01 0.02 0.00 0.00 0.00 0.00 0.00 0.00
0.00 0.00 0.00 0.00 0.00 0.00 0.00 0.00 0.00 0.00 0.00 0.00 0.00 0.00 0.00 0.00 0.00 0.00 0.00 0.00 0.00 0.00 0.00 0.00 0.00 0.00 0.00 0.00 0.00 0.00 0.00 0.00

GFSFLT1_prec_precacc24_021.txt.gz
Total_Precipitation_Accumulation
0.01 0.01 0.01 0.02 0.02 0.00 0.03 0.08 0.05 0.06 0.02 0.01 0.02 0.00 0.00 0.00 0.00 0.00 0.00 0.00 0.00 0.00 0.00 0.00 0.00 0.00 0.00 0.00 0.00 0.00 0.00 0.00
0.03 0.02 0.02 0.01 0.06 0.02 0.05 0.03 0.01 0.00 0.00 0.00 0.00 0.00 0.00 0.00 0.00 0.00 0.00 0.00 0.00 0.00 0.00 0.00 0.00 0.00 0.00 0.00 0.00 0.00 0.00 0.00
0.01 0.00 0.00 0.01 0.04 0.03 0.00 0.00 0.00 0.01 0.01 0.00 0.00 0.00 0.00 0.00 0.00 0.00 0.00 0.00 0.00 0.00 0.00 0.00 0.00 0.00 0.00 0.00 0.00 0.00 0.00 0.00
0.00 0.00 0.00 0.01 0.01 0.01 0.01 0.01 0.01 0.00 0.00 0.00 0.00 0.00 0.00 0.00 0.00 0.00 0.00 0.00 0.00 0.00 0.00 0.00 0.00 0.00 0.00 0.00 0.00 0.00 0.00 0.00
0.00 0.01 0.01 0.02 0.03 0.03 0.05 0.03 0.03 0.00 0.00 0.00 0.00 0.03 0.00 0.00 0.00 0.00 0.00 0.00 0.00 0.00 0.00 0.00 0.00 0.00 0.00 0.00 0.00 0.00 0.00 0.00
0.00 0.01 0.01 0.02 0.04 0.03 0.02 0.02 0.04 0.02 0.00 0.00 0.02 0.03 0.01 0.00 0.00 0.00 0.00 0.00 0.00 0.00 0.00 0.00 0.00 0.00 0.00 0.00 0.00 0.00 0.00 0.00
0.04 0.05 0.02 0.03 0.05 0.05 0.05 0.02 0.03 0.02 0.01 0.01 0.01 0.03 0.01 0.00 0.00 0.00 0.00 0.00 0.00 0.00 0.00 0.00 0.00 0.00 0.00 0.00 0.00 0.00 0.00 0.00
0.01 0.02 0.02 0.02 0.06 0.04 0.01 0.03 0.07 0.02 0.01 0.01 0.01 0.01 0.02 0.01 0.00 0.00 0.00 0.00 0.00 0.00 0.00 0.00 0.00 0.00 0.00 0.00 0.00 0.00 0.00 0.00
0.01 0.03 0.05 0.05 0.04 0.03 0.01 0.06 0.08 0.03 0.02 0.02 0.01 0.01 0.00 0.00 0.00 0.00 0.00 0.00 0.00 0.00 0.00 0.00 0.00 0.00 0.00 0.00 0.01 0.01 0.01 0.01
0.05 0.02 0.02 0.05 0.03 0.04 0.09 0.10 0.05 0.04 0.05 0.04 0.02 0.01 0.01 0.00 0.00 0.00 0.00 0.00 0.00 0.00 0.00 0.00 0.00 0.00 0.02 0.03 0.01 0.00 0.01 0.00
0.00 0.00 0.00 0.01 0.00 0.00 0.01 0.02 0.04 0.04 0.03 0.03 0.04 0.02 0.00 0.00 0.00 0.00 0.00 0.00 0.00 0.00 0.00 0.00 0.00 0.01 0.00 0.00 0.00 0.00 0.00 0.00
0.00 0.00 0.00 0.00 0.00 0.00 0.00 0.01 0.01 0.02 0.03 0.03 0.02 0.01 0.00 0.00 0.00 0.00 0.00 0.00 0.00 0.00 0.00 0.00 0.00 0.00 0.00 0.01 0.00 0.00 0.00 0.00
0.00 0.00 0.00 0.00 0.00 0.00 0.00 0.01 0.02 0.02 0.02 0.02 0.01 0.01 0.00 0.00 0.00 0.00 0.00 0.00 0.00 0.00 0.00 0.00 0.00 0.00 0.00 0.00 0.00 0.00 0.00 0.00
0.00 0.00 0.00 0.00 0.00 0.00 0.00 0.02 0.03 0.03 0.05 0.05 0.01 0.00 0.00 0.00 0.00 0.00 0.00 0.00 0.00 0.00 0.00 0.00 0.00 0.00 0.00 0.00 0.00 0.00 0.00 0.01
0.00 0.00 0.00 0.00 0.00 0.01 0.03 0.02 0.03 0.05 0.05 0.03 0.01 0.00 0.00 0.00 0.00 0.00 0.00 0.00 0.00 0.00 0.00 0.00 0.00 0.00 0.00 0.00 0.00 0.00 0.00 0.00
0.00 0.01 0.01 0.00 0.01 0.03 0.02 0.04 0.04 0.04 0.03 0.01 0.00 0.00 0.00 0.00 0.00 0.00 0.00 0.00 0.00 0.00 0.00 0.00 0.00 0.00 0.00 0.00 0.00 0.00 0.00 0.00
0.00 0.00 0.01 0.00 0.01 0.01 0.01 0.02 0.02 0.01 0.00 0.00 0.00 0.00 0.00 0.00 0.00 0.00 0.00 0.00 0.00 0.00 0.01 0.01 0.01 0.01 0.00 0.00 0.00 0.00 0.00 0.00
0.00 0.00 0.00 0.00 0.01 0.00 0.01 0.00 0.00 0.00 0.00 0.00 0.00 0.00 0.00 0.00 0.00 0.00 0.00 0.00 0.01 0.01 0.01 0.01 0.01 0.02 0.00 0.00 0.00 0.00 0.00 0.00
0.00 0.00 0.00 0.00 0.00 0.00 0.00 0.00 0.00 0.00 0.00 0.00 0.00 0.00 0.00 0.00 0.00 0.01 0.02 0.03 0.03 0.02 0.00 0.00 0.00 0.00 0.00 0.00 0.00 0.00 0.00 0.00

GFSFLT1_prec_precacc24_024.txt.gz
Total_Precipitation_Accumulation
0.01 0.01 0.01 0.02 0.02 0.00 0.03 0.08 0.05 0.06 0.02 0.01 0.03 0.01 0.00 0.00 0.00 0.00 0.00 0.00 0.00 0.00 0.00 0.00 0.00 0.00 0.00 0.00 0.00 0.00 0.00 0.00
0.03 0.02 0.02 0.01 0.06 0.02 0.05 0.03 0.01 0.00 0.00 0.01 0.04 0.03 0.01 0.00 0.00 0.00 0.00 0.00 0.00 0.00 0.00 0.00 0.00 0.00 0.00 0.00 0.00 0.00 0.00 0.00
0.01 0.00 0.00 0.01 0.04 0.03 0.00 0.00 0.00 0.01 0.01 0.00 0.01 0.01 0.00 0.00 0.00 0.00 0.00 0.00 0.00 0.00 0.00 0.00 0.00 0.00 0.00 0.00 0.00 0.00 0.00 0.00
0.00 0.00 0.00 0.01 0.01 0.01 0.01 0.01 0.01 0.00 0.00 0.00 0.00 0.00 0.00 0.00 0.00 0.00 0.00 0.00 0.00 0.00 0.00 0.00 0.00 0.00 0.00 0.00 0.00 0.00 0.00 0.00
0.00 0.01 0.01 0.02 0.03 0.03 0.05 0.03 0.03 0.00 0.00 0.00 0.00 0.03 0.00 0.00 0.00 0.00 0.00 0.00 0.00 0.00 0.00 0.00 0.00 0.00 0.00 0.00 0.00 0.00 0.00 0.00
0.00 0.01 0.01 0.02 0.04 0.04 0.02 0.02 0.04 0.02 0.01 0.01 0.02 0.04 0.02 0.00 0.00 0.00 0.00 0.00 0.00 0.00 0.00 0.00 0.00 0.00 0.00 0.00 0.00 0.00 0.00 0.00
0.04 0.05 0.02 0.03 0.05 0.05 0.06 0.04 0.04 0.07 0.07 0.05 0.02 0.05 0.03 0.01 0.01 0.00 0.00 0.00 0.00 0.00 0.00 0.00 0.00 0.00 0.00 0.00 0.00 0.00 0.00 0.00
0.01 0.02 0.02 0.02 0.06 0.04 0.03 0.06 0.14 0.12 0.09 0.06 0.03 0.02 0.02 0.03 0.03 0.02 0.00 0.00 0.00 0.00 0.00 0.00 0.00 0.00 0.00 0.00 0.00 0.00 0.00 0.00
0.01 0.03 0.05 0.06 0.04 0.03 0.02 0.08 0.19 0.18 0.13 0.11 0.06 0.02 0.01 0.01 0.01 0.00 0.00 0.00 0.00 0.00 0.00 0.00 0.00 0.00 0.00 0.00 0.01 0.01 0.01 0.01
0.05 0.02 0.03 0.06 0.05 0.04 0.09 0.10 0.09 0.13 0.14 0.13 0.10 0.08 0.06 0.05 0.04 0.01 0.00 0.00 0.00 0.00 0.00 0.00 0.00 0.00 0.02 0.03 0.01 0.00 0.01 0.00
0.00 0.00 0.00 0.01 0.00 0.01 0.01 0.02 0.04 0.05 0.06 0.08 0.09 0.09 0.08 0.06 0.02 0.01 0.00 0.00 0.00 0.00 0.00 0.00 0.00 0.01 0.00 0.00 0.00 0.00 0.00 0.00
0.00 0.00 0.00 0.00 0.00 0.00 0.00 0.01 0.02 0.06 0.13 0.13 0.09 0.06 0.04 0.03 0.02 0.00 0.00 0.00 0.00 0.00 0.00 0.00 0.00 0.00 0.00 0.01 0.00 0.00 0.00 0.00
0.00 0.00 0.00 0.00 0.00 0.00 0.01 0.03 0.05 0.09 0.08 0.07 0.07 0.05 0.02 0.01 0.01 0.00 0.00 0.00 0.00 0.00 0.00 0.00 0.00 0.00 0.00 0.00 0.00 0.00 0.00 0.00
0.00 0.00 0.00 0.00 0.00 0.04 0.07 0.08 0.07 0.06 0.10 0.10 0.07 0.04 0.02 0.01 0.00 0.00 0.00 0.00 0.00 0.00 0.00 0.00 0.00 0.00 0.00 0.00 0.00 0.00 0.00 0.01
0.00 0.00 0.00 0.00 0.05 0.10 0.08 0.06 0.05 0.08 0.11 0.09 0.07 0.04 0.01 0.00 0.00 0.00 0.00 0.00 0.00 0.00 0.00 0.00 0.00 0.00 0.00 0.00 0.00 0.00 0.00 0.00
0.00 0.01 0.01 0.01 0.05 0.06 0.04 0.05 0.05 0.06 0.05 0.03 0.02 0.01 0.00 0.00 0.00 0.00 0.00 0.00 0.00 0.00 0.00 0.00 0.01 0.02 0.00 0.00 0.00 0.00 0.00 0.00
0.00 0.00 0.01 0.01 0.01 0.01 0.01 0.02 0.02 0.01 0.01 0.01 0.00 0.00 0.00 0.00 0.00 0.00 0.00 0.00 0.00 0.00 0.01 0.03 0.04 0.02 0.00 0.00 0.00 0.00 0.00 0.00
0.00 0.00 0.00 0.00 0.01 0.00 0.01 0.00 0.00 0.00 0.00 0.00 0.00 0.00 0.00 0.00 0.00 0.00 0.00 0.00 0.01 0.02 0.05 0.05 0.01 0.02 0.00 0.00 0.00 0.00 0.00 0.00
0.00 0.00 0.00 0.00 0.00 0.00 0.00 0.00 0.00 0.00 0.00 0.00 0.00 0.00 0.00 0.01 0.00 0.01 0.02 0.04 0.07 0.09 0.06 0.01 0.00 0.00 0.00 0.00 0.00 0.00 0.00 0.00

GFSFLT1_prec_precacc24_027.txt.gz
Total_Precipitation_Accumulation
0.00 0.00 0.00 0.02 0.02 0.00 0.00 0.01 0.01 0.01 0.01 0.01 0.02 0.01 0.00 0.03 0.02 0.00 0.00 0.00 0.00 0.00 0.00 0.00 0.00 0.00 0.00 0.00 0.00 0.00 0.00 0.00
0.01 0.00 0.00 0.01 0.05 0.02 0.02 0.01 0.00 0.00 0.00 0.01 0.04 0.03 0.03 0.03 0.01 0.00 0.00 0.00 0.00 0.00 0.00 0.00 0.00 0.00 0.00 0.00 0.00 0.00 0.00 0.00
0.00 0.00 0.00 0.00 0.02 0.02 0.00 0.00 0.00 0.01 0.01 0.00 0.01 0.02 0.04 0.05 0.02 0.00 0.00 0.00 0.00 0.00 0.00 0.00 0.00 0.00 0.00 0.00 0.00 0.00 0.00 0.00
0.00 0.00 0.00 0.00 0.01 0.01 0.01 0.01 0.01 0.00 0.00 0.00 0.00 0.07 0.04 0.01 0.01 0.00 0.00 0.00 0.00 0.00 0.00 0.00 0.00 0.00 0.00 0.00 0.00 0.00 0.00 0.00
0.00 0.01 0.01 0.02 0.03 0.03 0.05 0.03 0.03 0.00 0.00 0.00 0.00 0.05 0.02 0.00 0.00 0.00 0.00 0.00 0.00 0.00 0.00 0.00 0.00 0.00 0.00 0.00 0.00 0.00 0.00 0.00
0.00 0.01 0.01 0.02 0.04 0.04 0.02 0.02 0.04 0.02 0.01 0.01 0.02 0.05 0.04 0.01 0.00 0.00 0.00 0.00 0.00 0.00 0.00 0.00 0.00 0.00 0.00 0.00 0.00 0.00 0.00 0.00
0.04 0.05 0.02 0.03 0.05 0.05 0.06 0.04 0.04 0.07 0.08 0.07 0.04 0.05 0.04 0.02 0.01 0.01 0.00 0.00 0.00 0.00 0.00 0.00 0.00 0.00 0.00 0.01 0.01 0.00 0.00 0.00
0.01 0.02 0.02 0.02 0.06 0.04 0.03 0.06 0.14 0.12 0.09 0.08 0.08 0.05 0.05 0.05 0.04 0.03 0.02 0.02 0.01 0.01 0.00 0.00 0.00 0.01 0.01 0.00 0.00 0.00 0.00 0.00
0.01 0.03 0.05 0.06 0.04 0.03 0.02 0.08 0.19 0.21 0.16 0.13 0.13 0.14 0.12 0.09 0.06 0.03 0.02 0.02 0.01 0.01 0.00 0.00 0.00 0.00 0.00 0.00 0.01 0.01 0.01 0.01
0.05 0.02 0.03 0.06 0.05 0.05 0.09 0.10 0.09 0.14 0.16 0.15 0.16 0.16 0.15 0.13 0.10 0.07 0.05 0.02 0.01 0.00 0.00 0.00 0.01 0.02 0.02 0.03 0.01 0.00 0.01 0.00
0.00 0.00 0.00 0.01 0.00 0.04 0.06 0.03 0.04 0.05 0.07 0.14 0.21 0.22 0.19 0.15 0.08 0.05 0.03 0.01 0.01 0.00 0.00 0.01 0.01 0.01 0.00 0.00 0.00 0.00 0.00 0.00
0.00 0.00 0.00 0.00 0.00 0.00 0.04 0.02 0.02 0.06 0.14 0.23 0.21 0.20 0.13 0.09 0.07 0.04 0.02 0.01 0.01 0.00 0.00 0.00 0.00 0.00 0.00 0.01 0.00 0.00 0.00 0.00
0.00 0.00 0.00 0.00 0.00 0.00 0.01 0.03 0.06 0.15 0.10 0.12 0.16 0.15 0.10 0.08 0.06 0.04 0.02 0.01 0.00 0.00 0.00 0.00 0.00 0.00 0.00 0.00 0.00 0.00 0.00 0.00
0.00 0.00 0.00 0.00 0.00 0.04 0.09 0.10 0.10 0.08 0.13 0.13 0.10 0.09 0.09 0.07 0.04 0.02 0.00 0.00 0.00 0.00 0.00 0.00 0.00 0.00 0.00 0.00 0.00 0.00 0.00 0.01
0.00 0.00 0.00 0.00 0.05 0.10 0.09 0.07 0.05 0.09 0.13 0.10 0.09 0.07 0.05 0.02 0.01 0.00 0.00 0.00 0.00 0.00 0.00 0.00 0.00 0.00 0.01 0.03 0.02 0.00 0.00 0.00
0.00 0.01 0.01 0.01 0.05 0.06 0.04 0.05 0.05 0.06 0.06 0.04 0.03 0.02 0.01 0.00 0.00 0.00 0.00 0.00 0.00 0.00 0.00 0.00 0.01 0.05 0.07 0.05 0.00 0.00 0.00 0.00
0.00 0.00 0.01 0.01 0.01 0.01 0.01 0.02 0.02 0.01 0.01 0.01 0.00 0.00 0.00 0.00 0.00 0.00 0.00 0.00 0.00 0.00 0.01 0.04 0.08 0.10 0.04 0.00 0.00 0.00 0.00 0.00
0.00 0.00 0.00 0.00 0.01 0.00 0.01 0.00 0.00 0.00 0.00 0.00 0.00 0.00 0.00 0.00 0.00 0.00 0.00 0.00 0.01 0.03 0.07 0.12 0.11 0.06 0.00 0.00 0.00 0.00 0.00 0.00
0.00 0.00 0.00 0.00 0.00 0.00 0.00 0.00 0.00 0.00 0.00 0.00 0.00 0.00 0.00 0.01 0.01 0.01 0.02 0.05 0.11 0.15 0.16 0.10 0.02 0.00 0.01 0.01 0.00 0.00 0.00 0.00

GFSFLT1_prec_precacc24_030.txt.gz
Total_Precipitation_Accumulation
0.00 0.00 0.00 0.02 0.02 0.00 0.00 0.00 0.00 0.01 0.01 0.01 0.02 0.01 0.02 0.04 0.03 0.00 0.00 0.00 0.00 0.00 0.00 0.00 0.00 0.00 0.00 0.00 0.00 0.00 0.00 0.00
0.01 0.00 0.00 0.01 0.05 0.01 0.00 0.00 0.00 0.00 0.00 0.01 0.04 0.03 0.03 0.04 0.03 0.00 0.00 0.00 0.00 0.00 0.00 0.00 0.00 0.00 0.00 0.00 0.00 0.00 0.00 0.00
0.00 0.00 0.00 0.00 0.02 0.01 0.00 0.00 0.00 0.01 0.01 0.00 0.01 0.02 0.04 0.07 0.05 0.02 0.01 0.00 0.00 0.00 0.00 0.00 0.00 0.00 0.00 0.00 0.00 0.00 0.00 0.00
0.00 0.00 0.00 0.00 0.01 0.01 0.01 0.01 0.01 0.00 0.00 0.00 0.00 0.07 0.05 0.06 0.11 0.06 0.01 0.00 0.00 0.00 0.00 0.00 0.00 0.00 0.00 0.00 0.00 0.00 0.00 0.00
0.00 0.01 0.01 0.02 0.03 0.03 0.05 0.03 0.03 0.00 0.00 0.00 0.00 0.05 0.05 0.09 0.09 0.03 0.00 0.00 0.00 0.00 0.00 0.00 0.00 0.00 0.00 0.00 0.00 0.00 0.00 0.00
0.00 0.01 0.01 0.02 0.04 0.04 0.02 0.02 0.04 0.02 0.01 0.01 0.02 0.05 0.07 0.05 0.02 0.01 0.00 0.00 0.00 0.00 0.00 0.00 0.00 0.00 0.00 0.00 0.00 0.01 0.00 0.00
0.04 0.05 0.02 0.03 0.05 0.05 0.06 0.04 0.04 0.07 0.08 0.07 0.04 0.06 0.06 0.03 0.02 0.02 0.01 0.01 0.01 0.00 0.00 0.00 0.00 0.00 0.00 0.01 0.01 0.00 0.00 0.00
0.01 0.02 0.02 0.02 0.06 0.04 0.03 0.06 0.14 0.12 0.09 0.08 0.09 0.07 0.06 0.06 0.07 0.07 0.05 0.03 0.03 0.02 0.00 0.00 0.00 0.01 0.01 0.00 0.01 0.01 0.00 0.00
0.01 0.03 0.05 0.06 0.04 0.03 0.02 0.08 0.19 0.21 0.16 0.13 0.16 0.18 0.20 0.17 0.16 0.12 0.08 0.06 0.04 0.03 0.04 0.03 0.00 0.00 0.01 0.03 0.04 0.01 0.01 0.01
0.05 0.02 0.03 0.06 0.05 0.05 0.09 0.10 0.09 0.14 0.16 0.16 0.20 0.21 0.20 0.21 0.16 0.11 0.07 0.04 0.02 0.01 0.02 0.00 0.01 0.04 0.07 0.07 0.02 0.00 0.01 0.00
0.00 0.00 0.00 0.01 0.00 0.04 0.06 0.03 0.04 0.05 0.07 0.14 0.23 0.28 0.29 0.24 0.15 0.10 0.05 0.03 0.01 0.00 0.00 0.03 0.08 0.07 0.05 0.01 0.00 0.00 0.00 0.00
0.00 0.00 0.00 0.00 0.00 0.00 0.04 0.02 0.02 0.06 0.14 0.24 0.24 0.29 0.25 0.18 0.15 0.11 0.06 0.02 0.02 0.05 0.09 0.10 0.04 0.00 0.00 0.00 0.00 0.00 0.00 0.00
0.00 0.00 0.00 0.00 0.00 0.00 0.01 0.03 0.06 0.15 0.10 0.13 0.18 0.19 0.17 0.14 0.12 0.09 0.06 0.04 0.04 0.03 0.01 0.00 0.00 0.00 0.00 0.00 0.00 0.00 0.01 0.01
0.00 0.00 0.00 0.00 0.00 0.04 0.09 0.10 0.10 0.08 0.14 0.13 0.11 0.11 0.11 0.09 0.07 0.04 0.02 0.02 0.02 0.01 0.00 0.00 0.00 0.00 0.00 0.00 0.00 0.05 0.05 0.01
0.00 0.00 0.00 0.00 0.05 0.10 0.09 0.07 0.06 0.10 0.14 0.12 0.11 0.11 0.07 0.06 0.03 0.01 0.00 0.00 0.00 0.00 0.00 0.00 0.00 0.00 0.01 0.06 0.09 0.04 0.00 0.00
0.00 0.01 0.01 0.01 0.05 0.06 0.04 0.06 0.06 0.08 0.06 0.04 0.03 0.02 0.01 0.00 0.00 0.00 0.00 0.00 0.00 0.00 0.00 0.00 0.02 0.05 0.10 0.10 0.04 0.01 0.00 0.00
0.00 0.00 0.01 0.01 0.01 0.01 0.02 0.02 0.02 0.01 0.01 0.01 0.00 0.00 0.00 0.00 0.00 0.00 0.00 0.00 0.00 0.00 0.01 0.05 0.09 0.12 0.11 0.09 0.02 0.00 0.00 0.00
0.00 0.00 0.00 0.00 0.01 0.00 0.01 0.00 0.00 0.00 0.00 0.00 0.00 0.00 0.00 0.00 0.00 0.00 0.00 0.00 0.01 0.03 0.07 0.13 0.15 0.12 0.05 0.02 0.00 0.00 0.00 0.00
0.00 0.00 0.00 0.00 0.00 0.00 0.00 0.00 0.00 0.00 0.00 0.00 0.00 0.00 0.00 0.01 0.01 0.01 0.02 0.05 0.11 0.15 0.17 0.13 0.06 0.01 0.02 0.04 0.02 0.00 0.00 0.00

GFSFLT1_prec_precacc24_033.txt.gz
Total_Precipitation_Accumulation
0.00 0.00 0.00 0.02 0.02 0.00 0.00 0.01 0.02 0.05 0.07 0.02 0.02 0.01 0.02 0.07 0.09 0.03 0.00 0.00 0.00 0.00 0.00 0.00 0.00 0.00 0.00 0.00 0.00 0.00 0.00 0.00
0.01 0.00 0.00 0.01 0.05 0.01 0.00 0.00 0.00 0.02 0.02 0.01 0.04 0.03 0.03 0.08 0.11 0.02 0.00 0.00 0.00 0.00 0.00 0.00 0.00 0.00 0.00 0.00 0.00 0.00 0.00 0.00
0.00 0.00 0.00 0.00 0.02 0.01 0.00 0.00 0.00 0.01 0.01 0.00 0.01 0.02 0.04 0.10 0.14 0.05 0.01 0.01 0.00 0.00 0.00 0.00 0.00 0.00 0.00 0.00 0.00 0.00 0.00 0.00
0.00 0.00 0.00 0.00 0.01 0.01 0.01 0.01 0.01 0.00 0.00 0.00 0.00 0.07 0.05 0.07 0.12 0.07 0.03 0.01 0.00 0.00 0.00 0.00 0.00 0.00 0.00 0.00 0.00 0.00 0.00 0.00
0.00 0.01 0.00 0.01 0.03 0.03 0.05 0.03 0.03 0.00 0.00 0.00 0.00 0.05 0.05 0.09 0.10 0.04 0.00 0.00 0.00 0.00 0.00 0.00 0.00 0.00 0.00 0.00 0.00 0.00 0.00 0.00
0.00 0.01 0.01 0.02 0.04 0.04 0.02 0.02 0.04 0.02 0.01 0.01 0.02 0.05 0.07 0.05 0.02 0.01 0.00 0.00 0.00 0.00 0.00 0.00 0.00 0.00 0.00 0.00 0.00 0.01 0.00 0.00
0.04 0.05 0.02 0.03 0.05 0.05 0.06 0.04 0.04 0.07 0.08 0.07 0.04 0.06 0.06 0.03 0.03 0.02 0.01 0.01 0.02 0.02 0.01 0.00 0.00 0.00 0.00 0.01 0.01 0.00 0.00 0.01
0.01 0.02 0.02 0.02 0.06 0.04 0.03 0.06 0.14 0.12 0.09 0.08 0.09 0.07 0.06 0.06 0.08 0.08 0.06 0.05 0.04 0.04 0.03 0.03 0.03 0.03 0.04 0.02 0.02 0.03 0.03 0.01
0.01 0.03 0.05 0.06 0.04 0.03 0.02 0.08 0.19 0.21 0.16 0.13 0.16 0.18 0.20 0.18 0.19 0.17 0.12 0.12 0.17 0.16 0.10 0.07 0.04 0.02 0.02 0.03 0.05 0.04 0.03 0.01
0.05 0.02 0.03 0.06 0.05 0.05 0.09 0.10 0.09 0.14 0.16 0.16 0.20 0.21 0.20 0.23 0.22 0.16 0.09 0.05 0.03 0.02 0.02 0.01 0.02 0.04 0.06 0.10 0.09 0.04 0.02 0.01
0.00 0.00 0.00 0.01 0.00 0.04 0.06 0.03 0.04 0.05 0.07 0.15 0.24 0.28 0.30 0.29 0.20 0.12 0.07 0.04 0.01 0.00 0.00 0.03 0.09 0.14 0.15 0.10 0.04 0.01 0.00 0.00
0.00 0.00 0.00 0.00 0.00 0.00 0.04 0.02 0.02 0.06 0.14 0.24 0.24 0.30 0.31 0.26 0.19 0.12 0.08 0.04 0.03 0.05 0.10 0.12 0.09 0.05 0.02 0.00 0.00 0.00 0.00 0.00
0.00 0.00 0.00 0.00 0.00 0.00 0.01 0.03 0.06 0.15 0.10 0.13 0.19 0.22 0.21 0.21 0.19 0.12 0.09 0.06 0.04 0.03 0.01 0.01 0.00 0.00 0.00 0.00 0.01 0.00 0.01 0.05
0.00 0.00 0.00 0.00 0.00 0.04 0.09 0.10 0.10 0.08 0.14 0.13 0.11 0.12 0.13 0.12 0.10 0.08 0.05 0.03 0.02 0.01 0.01 0.02 0.02 0.01 0.01 0.01 0.01 0.05 0.08 0.04
0.00 0.00 0.00 0.00 0.05 0.10 0.09 0.07 0.06 0.10 0.14 0.14 0.12 0.14 0.08 0.07 0.04 0.01 0.00 0.00 0.00 0.00 0.00 0.01 0.01 0.00 0.01 0.06 0.09 0.07 0.06 0.04
0.00 0.01 0.01 0.01 0.05 0.06 0.04 0.06 0.07 0.09 0.09 0.07 0.05 0.03 0.01 0.00 0.00 0.00 0.00 0.00 0.00 0.00 0.00 0.00 0.01 0.06 0.11 0.11 0.12 0.11 0.03 0.00
0.00 0.00 0.01 0.01 0.01 0.01 0.02 0.03 0.04 0.03 0.02 0.01 0.01 0.00 0.00 0.00 0.00 0.00 0.00 0.00 0.00 0.00 0.01 0.04 0.08 0.13 0.13 0.12 0.05 0.01 0.00 0.00
0.00 0.00 0.00 0.00 0.01 0.00 0.01 0.01 0.00 0.00 0.00 0.00 0.00 0.00 0.00 0.00 0.00 0.00 0.00 0.00 0.01 0.03 0.07 0.12 0.14 0.11 0.06 0.02 0.01 0.00 0.01 0.00
0.00 0.00 0.00 0.00 0.00 0.00 0.00 0.00 0.00 0.00 0.00 0.00 0.00 0.00 0.00 0.01 0.01 0.01 0.02 0.05 0.11 0.15 0.17 0.13 0.05 0.01 0.02 0.04 0.03 0.01 0.01 0.00

GFSFLT1_prec_precacc24_036.txt.gz
Total_Precipitation_Accumulation
0.00 0.00 0.00 0.02 0.02 0.00 0.00 0.01 0.02 0.05 0.09 0.03 0.02 0.01 0.02 0.07 0.10 0.03 0.03 0.00 0.00 0.00 0.00 0.00 0.00 0.00 0.00 0.00 0.00 0.00 0.00 0.00
0.01 0.00 0.00 0.01 0.05 0.01 0.00 0.00 0.00 0.03 0.04 0.01 0.04 0.03 0.03 0.08 0.17 0.05 0.20 0.07 0.02 0.00 0.00 0.00 0.00 0.00 0.00 0.00 0.00 0.00 0.00 0.00
0.00 0.00 0.00 0.00 0.02 0.01 0.00 0.00 0.00 0.01 0.01 0.00 0.01 0.02 0.04 0.10 0.14 0.09 0.16 0.11 0.00 0.00 0.00 0.00 0.00 0.00 0.00 0.00 0.00 0.00 0.00 0.00
0.00 0.00 0.00 0.00 0.00 0.00 0.00 0.00 0.01 0.00 0.00 0.00 0.00 0.07 0.05 0.07 0.12 0.09 0.06 0.05 0.01 0.00 0.00 0.00 0.00 0.00 0.00 0.00 0.00 0.00 0.00 0.00
0.00 0.01 0.00 0.00 0.01 0.03 0.04 0.03 0.03 0.00 0.00 0.00 0.00 0.05 0.05 0.09 0.10 0.04 0.00 0.01 0.01 0.03 0.00 0.00 0.00 0.00 0.00 0.00 0.00 0.00 0.00 0.00
0.00 0.01 0.00 0.01 0.03 0.04 0.02 0.02 0.04 0.02 0.01 0.01 0.02 0.05 0.07 0.05 0.02 0.01 0.00 0.00 0.00 0.03 0.00 0.00 0.00 0.00 0.00 0.00 0.01 0.01 0.00 0.00
0.04 0.05 0.02 0.03 0.05 0.05 0.06 0.04 0.04 0.07 0.08 0.07 0.04 0.06 0.06 0.03 0.03 0.04 0.01 0.01 0.03 0.05 0.03 0.01 0.01 0.03 0.08 0.10 0.07 0.01 0.01 0.02
0.01 0.02 0.02 0.02 0.06 0.04 0.03 0.06 0.14 0.12 0.09 0.08 0.09 0.07 0.06 0.06 0.09 0.15 0.09 0.07 0.05 0.05 0.04 0.06 0.11 0.15 0.12 0.07 0.03 0.04 0.04 0.03
0.01 0.03 0.05 0.06 0.04 0.03 0.02 0.08 0.19 0.21 0.16 0.13 0.16 0.18 0.20 0.22 0.25 0.29 0.23 0.19 0.18 0.22 0.20 0.15 0.08 0.03 0.02 0.03 0.05 0.05 0.07 0.09
0.05 0.02 0.03 0.06 0.05 0.05 0.09 0.10 0.09 0.14 0.16 0.16 0.21 0.28 0.31 0.42 0.39 0.25 0.21 0.09 0.03 0.02 0.02 0.01 0.02 0.04 0.07 0.09 0.11 0.10 0.07 0.04
0.00 0.00 0.00 0.01 0.00 0.04 0.06 0.03 0.04 0.05 0.07 0.15 0.27 0.41 0.41 0.37 0.28 0.32 0.20 0.09 0.03 0.02 0.01 0.03 0.09 0.14 0.15 0.12 0.06 0.03 0.02 0.00
0.00 0.00 0.00 0.00 0.00 0.00 0.04 0.02 0.02 0.06 0.15 0.29 0.31 0.40 0.50 0.38 0.26 0.25 0.19 0.10 0.07 0.06 0.10 0.12 0.09 0.05 0.02 0.01 0.01 0.02 0.01 0.01
0.00 0.00 0.00 0.00 0.00 0.00 0.01 0.03 0.06 0.15 0.11 0.25 0.45 0.31 0.41 0.34 0.34 0.18 0.14 0.09 0.07 0.03 0.01 0.01 0.00 0.01 0.01 0.01 0.02 0.03 0.04 0.06
0.00 0.00 0.00 0.00 0.00 0.04 0.09 0.10 0.11 0.09 0.15 0.23 0.27 0.16 0.39 0.22 0.18 0.14 0.09 0.04 0.02 0.01 0.01 0.02 0.02 0.02 0.02 0.02 0.03 0.08 0.10 0.04
0.00 0.00 0.00 0.00 0.05 0.10 0.09 0.07 0.07 0.11 0.17 0.20 0.14 0.18 0.19 0.11 0.06 0.03 0.01 0.00 0.00 0.00 0.01 0.01 0.01 0.01 0.02 0.06 0.10 0.08 0.08 0.07
0.00 0.01 0.01 0.01 0.05 0.06 0.04 0.06 0.08 0.14 0.13 0.09 0.06 0.10 0.03 0.01 0.01 0.00 0.00 0.00 0.00 0.00 0.00 0.00 0.01 0.05 0.11 0.12 0.12 0.12 0.04 0.01
0.00 0.00 0.01 0.01 0.01 0.01 0.02 0.03 0.05 0.04 0.03 0.02 0.01 0.01 0.00 0.00 0.00 0.00 0.00 0.00 0.00 0.00 0.01 0.04 0.08 0.12 0.13 0.12 0.06 0.01 0.00 0.00
0.00 0.00 0.00 0.00 0.01 0.00 0.01 0.01 0.01 0.01 0.01 0.00 0.00 0.00 0.00 0.00 0.00 0.00 0.00 0.00 0.01 0.03 0.07 0.12 0.14 0.10 0.06 0.02 0.01 0.00 0.01 0.00
0.00 0.00 0.00 0.00 0.00 0.00 0.00 0.00 0.00 0.00 0.00 0.00 0.00 0.00 0.00 0.01 0.01 0.01 0.02 0.05 0.11 0.15 0.17 0.13 0.05 0.01 0.02 0.04 0.03 0.01 0.01 0.00

GFSFLT1_prec_precacc24_039.txt.gz
Total_Precipitation_Accumulation
0.00 0.00 0.00 0.00 0.00 0.00 0.00 0.01 0.02 0.05 0.08 0.02 0.02 0.01 0.02 0.07 0.10 0.05 0.04 0.01 0.03 0.02 0.01 0.01 0.00 0.00 0.00 0.00 0.00 0.00 0.00 0.00
0.00 0.00 0.00 0.00 0.00 0.00 0.00 0.00 0.00 0.02 0.04 0.01 0.04 0.03 0.03 0.08 0.17 0.06 0.23 0.10 0.10 0.04 0.01 0.00 0.00 0.00 0.00 0.00 0.00 0.00 0.00 0.00
0.00 0.00 0.00 0.00 0.00 0.00 0.00 0.00 0.00 0.00 0.00 0.00 0.01 0.02 0.04 0.10 0.14 0.13 0.21 0.19 0.06 0.04 0.01 0.00 0.00 0.00 0.00 0.00 0.00 0.00 0.00 0.00
0.00 0.00 0.00 0.00 0.00 0.00 0.00 0.00 0.01 0.00 0.00 0.00 0.00 0.07 0.05 0.07 0.12 0.11 0.11 0.10 0.04 0.06 0.02 0.00 0.00 0.00 0.00 0.00 0.00 0.00 0.00 0.00
0.00 0.00 0.00 0.00 0.00 0.01 0.02 0.03 0.03 0.00 0.00 0.00 0.00 0.05 0.05 0.09 0.10 0.05 0.03 0.01 0.06 0.19 0.05 0.01 0.00 0.00 0.00 0.00 0.00 0.00 0.00 0.00
0.00 0.01 0.00 0.00 0.01 0.01 0.02 0.02 0.04 0.02 0.01 0.01 0.02 0.05 0.07 0.05 0.02 0.01 0.01 0.03 0.03 0.11 0.05 0.01 0.00 0.00 0.00 0.00 0.01 0.02 0.05 0.07
0.04 0.05 0.01 0.01 0.03 0.03 0.06 0.04 0.04 0.07 0.08 0.07 0.04 0.09 0.07 0.03 0.03 0.04 0.04 0.03 0.16 0.15 0.10 0.05 0.03 0.05 0.10 0.12 0.13 0.08 0.05 0.05
0.01 0.02 0.01 0.02 0.06 0.04 0.03 0.06 0.14 0.12 0.09 0.08 0.09 0.08 0.07 0.06 0.09 0.20 0.21 0.18 0.21 0.14 0.15 0.10 0.11 0.17 0.16 0.10 0.06 0.04 0.04 0.04
0.01 0.02 0.05 0.06 0.04 0.03 0.02 0.08 0.19 0.21 0.16 0.13 0.16 0.19 0.20 0.22 0.27 0.40 0.43 0.33 0.28 0.34 0.24 0.17 0.08 0.06 0.04 0.04 0.05 0.05 0.07 0.09
0.00 0.01 0.03 0.06 0.05 0.05 0.09 0.10 0.09 0.14 0.16 0.16 0.21 0.28 0.31 0.43 0.43 0.32 0.33 0.22 0.13 0.15 0.11 0.04 0.02 0.04 0.07 0.09 0.11 0.10 0.07 0.04
0.00 0.01 0.00 0.01 0.00 0.04 0.06 0.03 0.05 0.09 0.13 0.15 0.27 0.41 0.42 0.38 0.31 0.39 0.31 0.26 0.23 0.21 0.15 0.13 0.13 0.15 0.15 0.12 0.06 0.03 0.02 0.02
0.00 0.01 0.01 0.01 0.00 0.01 0.04 0.08 0.31 0.27 0.29 0.34 0.35 0.43 0.58 0.59 0.46 0.39 0.37 0.19 0.16 0.22 0.21 0.16 0.10 0.06 0.03 0.01 0.01 0.02 0.02 0.02
0.00 0.00 0.00 0.00 0.01 0.01 0.02 0.04 0.16 0.31 0.23 0.46 0.69 0.61 0.84 0.96 0.83 0.49 0.45 0.19 0.17 0.07 0.02 0.02 0.02 0.01 0.01 0.01 0.03 0.03 0.04 0.08
0.00 0.00 0.00 0.00 0.00 0.04 0.10 0.14 0.26 0.33 0.48 0.59 0.57 0.40 0.68 0.49 0.45 0.31 0.15 0.09 0.05 0.02 0.01 0.02 0.02 0.02 0.02 0.02 0.03 0.08 0.11 0.06
0.00 0.00 0.00 0.00 0.05 0.10 0.09 0.09 0.19 0.31 0.28 0.28 0.21 0.19 0.25 0.19 0.12 0.07 0.06 0.03 0.03 0.02 0.01 0.01 0.01 0.01 0.02 0.07 0.10 0.08 0.09 0.08
0.00 0.01 0.01 0.01 0.05 0.06 0.04 0.06 0.10 0.16 0.14 0.09 0.07 0.14 0.04 0.04 0.04 0.02 0.00 0.02 0.01 0.00 0.00 0.00 0.02 0.06 0.11 0.12 0.12 0.12 0.04 0.01
0.00 0.00 0.00 0.00 0.01 0.00 0.01 0.03 0.06 0.05 0.03 0.02 0.01 0.02 0.01 0.01 0.01 0.00 0.00 0.00 0.00 0.00 0.01 0.04 0.08 0.12 0.13 0.13 0.06 0.01 0.00 0.00
0.00 0.00 0.00 0.01 0.00 0.00 0.01 0.01 0.01 0.01 0.01 0.00 0.00 0.00 0.00 0.00 0.00 0.00 0.00 0.00 0.01 0.03 0.07 0.12 0.14 0.10 0.06 0.02 0.01 0.00 0.01 0.00
0.00 0.00 0.00 0.00 0.00 0.00 0.00 0.00 0.00 0.00 0.00 0.00 0.00 0.00 0.00 0.00 0.00 0.01 0.02 0.05 0.11 0.15 0.17 0.13 0.05 0.01 0.02 0.04 0.03 0.01 0.01 0.00

GFSFLT1_prec_precacc24_042.txt.gz
Total_Precipitation_Accumulation
0.00 0.00 0.00 0.00 0.00 0.00 0.00 0.01 0.03 0.06 0.08 0.02 0.02 0.01 0.02 0.07 0.10 0.05 0.04 0.01 0.03 0.02 0.01 0.01 0.00 0.00 0.00 0.00 0.00 0.00 0.00 0.00
0.00 0.00 0.00 0.00 0.00 0.00 0.00 0.00 0.00 0.02 0.04 0.01 0.04 0.03 0.03 0.08 0.17 0.06 0.23 0.10 0.10 0.04 0.01 0.00 0.00 0.00 0.00 0.00 0.00 0.00 0.00 0.00
0.00 0.00 0.00 0.00 0.00 0.00 0.00 0.00 0.00 0.00 0.00 0.00 0.01 0.02 0.04 0.10 0.14 0.13 0.21 0.19 0.06 0.04 0.01 0.00 0.00 0.00 0.00 0.00 0.00 0.00 0.00 0.00
0.00 0.00 0.00 0.00 0.00 0.00 0.00 0.00 0.01 0.00 0.00 0.00 0.00 0.07 0.05 0.07 0.12 0.11 0.11 0.10 0.04 0.06 0.02 0.00 0.00 0.00 0.00 0.00 0.00 0.00 0.00 0.00
0.00 0.00 0.00 0.00 0.00 0.00 0.00 0.00 0.00 0.00 0.00 0.00 0.00 0.05 0.05 0.09 0.10 0.05 0.03 0.01 0.06 0.19 0.07 0.02 0.00 0.00 0.00 0.00 0.00 0.00 0.00 0.00
0.00 0.00 0.00 0.00 0.00 0.00 0.01 0.01 0.02 0.01 0.01 0.01 0.02 0.05 0.07 0.05 0.02 0.01 0.01 0.03 0.03 0.11 0.09 0.05 0.01 0.03 0.04 0.03 0.02 0.03 0.08 0.11
0.00 0.02 0.01 0.00 0.00 0.02 0.02 0.03 0.04 0.07 0.08 0.07 0.04 0.09 0.07 0.03 0.03 0.04 0.04 0.03 0.17 0.21 0.19 0.14 0.09 0.10 0.16 0.17 0.16 0.10 0.06 0.05
0.00 0.02 0.01 0.01 0.01 0.02 0.02 0.06 0.14 0.12 0.09 0.08 0.09 0.08 0.07 0.06 0.09 0.20 0.21 0.18 0.30 0.28 0.26 0.22 0.18 0.24 0.22 0.16 0.08 0.05 0.04 0.04
0.01 0.02 0.04 0.06 0.03 0.02 0.02 0.08 0.19 0.20 0.15 0.13 0.15 0.19 0.20 0.22 0.27 0.42 0.44 0.34 0.31 0.43 0.38 0.35 0.20 0.12 0.12 0.09 0.06 0.06 0.07 0.09
0.00 0.01 0.02 0.06 0.05 0.04 0.07 0.07 0.09 0.13 0.14 0.16 0.21 0.28 0.31 0.43 0.46 0.37 0.35 0.23 0.14 0.21 0.25 0.20 0.15 0.17 0.17 0.16 0.13 0.10 0.07 0.05
0.00 0.01 0.00 0.01 0.01 0.05 0.06 0.03 0.05 0.10 0.14 0.15 0.27 0.41 0.42 0.41 0.33 0.42 0.37 0.32 0.33 0.36 0.31 0.24 0.26 0.26 0.23 0.17 0.08 0.04 0.03 0.03
0.00 0.01 0.01 0.01 0.00 0.01 0.06 0.11 0.33 0.28 0.34 0.38 0.37 0.46 0.61 0.67 0.60 0.56 0.53 0.48 0.45 0.37 0.30 0.25 0.16 0.10 0.05 0.01 0.02 0.04 0.04 0.03
0.00 0.00 0.00 0.01 0.01 0.01 0.02 0.07 0.18 0.34 0.31 0.51 0.73 0.66 0.98 1.49 1.50 1.15 1.24 1.11 0.63 0.18 0.10 0.08 0.05 0.04 0.02 0.01 0.03 0.04 0.05 0.09
0.00 0.00 0.00 0.00 0.00 0.04 0.10 0.15 0.27 0.42 0.63 0.76 0.76 0.62 0.99 0.94 0.65 0.47 0.39 0.45 0.26 0.04 0.03 0.06 0.05 0.04 0.03 0.02 0.03 0.09 0.11 0.06
0.00 0.00 0.00 0.00 0.05 0.10 0.09 0.09 0.23 0.34 0.37 0.47 0.37 0.30 0.34 0.31 0.23 0.17 0.12 0.08 0.10 0.05 0.04 0.04 0.02 0.02 0.02 0.07 0.10 0.08 0.09 0.08
0.00 0.01 0.01 0.01 0.05 0.06 0.04 0.06 0.12 0.16 0.14 0.17 0.13 0.21 0.13 0.12 0.07 0.06 0.04 0.05 0.06 0.04 0.03 0.02 0.02 0.06 0.12 0.13 0.13 0.12 0.04 0.01
0.00 0.00 0.00 0.00 0.01 0.00 0.01 0.02 0.06 0.05 0.05 0.08 0.06 0.08 0.07 0.06 0.04 0.02 0.02 0.03 0.02 0.01 0.02 0.04 0.09 0.12 0.15 0.13 0.06 0.01 0.00 0.00
0.00 0.00 0.00 0.01 0.00 0.00 0.00 0.01 0.01 0.02 0.05 0.04 0.04 0.04 0.05 0.04 0.04 0.02 0.01 0.00 0.01 0.03 0.07 0.12 0.14 0.10 0.06 0.02 0.01 0.00 0.01 0.00
0.00 0.00 0.00 0.00 0.00 0.00 0.00 0.00 0.00 0.01 0.02 0.03 0.03 0.03 0.03 0.03 0.02 0.00 0.01 0.04 0.11 0.15 0.17 0.13 0.05 0.01 0.02 0.04 0.03 0.01 0.01 0.00

GFSFLT1_prec_precacc24_045.txt.gz
Total_Precipitation_Accumulation
0.00 0.00 0.00 0.00 0.00 0.00 0.01 0.02 0.05 0.09 0.09 0.03 0.01 0.01 0.02 0.07 0.10 0.05 0.04 0.01 0.03 0.02 0.01 0.01 0.00 0.00 0.00 0.00 0.00 0.00 0.00 0.00
0.00 0.00 0.00 0.00 0.00 0.00 0.00 0.00 0.01 0.04 0.04 0.01 0.05 0.03 0.03 0.08 0.17 0.06 0.23 0.10 0.10 0.04 0.01 0.00 0.00 0.00 0.00 0.00 0.00 0.00 0.00 0.00
0.00 0.00 0.00 0.00 0.00 0.00 0.00 0.00 0.00 0.00 0.00 0.00 0.01 0.02 0.04 0.10 0.14 0.13 0.21 0.19 0.06 0.04 0.01 0.00 0.00 0.00 0.00 0.00 0.00 0.00 0.00 0.00
0.00 0.00 0.00 0.00 0.00 0.00 0.00 0.00 0.00 0.00 0.00 0.00 0.00 0.07 0.05 0.07 0.12 0.11 0.11 0.10 0.04 0.06 0.02 0.00 0.00 0.00 0.00 0.00 0.00 0.00 0.00 0.00
0.00 0.00 0.00 0.00 0.00 0.00 0.00 0.00 0.00 0.00 0.00 0.00 0.00 0.02 0.04 0.09 0.10 0.05 0.03 0.01 0.06 0.19 0.07 0.02 0.00 0.00 0.00 0.00 0.00 0.01 0.01 0.00
0.00 0.00 0.00 0.00 0.00 0.00 0.01 0.00 0.00 0.00 0.01 0.01 0.00 0.02 0.06 0.05 0.02 0.01 0.01 0.03 0.03 0.11 0.09 0.06 0.02 0.05 0.07 0.08 0.07 0.08 0.10 0.12
0.00 0.00 0.00 0.00 0.00 0.00 0.01 0.01 0.00 0.05 0.07 0.07 0.03 0.06 0.05 0.03 0.03 0.04 0.04 0.03 0.17 0.21 0.19 0.16 0.13 0.13 0.22 0.25 0.22 0.14 0.10 0.06
0.00 0.00 0.00 0.00 0.00 0.00 0.01 0.02 0.07 0.10 0.08 0.06 0.08 0.06 0.06 0.05 0.09 0.20 0.21 0.18 0.30 0.28 0.26 0.25 0.22 0.31 0.33 0.26 0.17 0.12 0.09 0.06
0.00 0.00 0.00 0.01 0.00 0.00 0.01 0.02 0.11 0.18 0.14 0.11 0.14 0.18 0.20 0.22 0.27 0.42 0.44 0.34 0.31 0.43 0.39 0.42 0.33 0.24 0.26 0.25 0.20 0.16 0.14 0.12
0.00 0.00 0.00 0.01 0.02 0.01 0.00 0.00 0.04 0.10 0.11 0.13 0.19 0.27 0.31 0.43 0.46 0.37 0.36 0.27 0.16 0.22 0.29 0.28 0.27 0.37 0.37 0.33 0.23 0.16 0.11 0.05
0.00 0.01 0.00 0.00 0.00 0.05 0.05 0.01 0.02 0.08 0.13 0.13 0.23 0.39 0.41 0.41 0.33 0.43 0.38 0.37 0.38 0.45 0.45 0.46 0.49 0.46 0.35 0.24 0.13 0.07 0.04 0.03
0.00 0.01 0.01 0.01 0.00 0.02 0.08 0.14 0.33 0.31 0.39 0.48 0.41 0.46 0.61 0.69 0.62 0.60 0.58 0.55 0.55 0.57 0.56 0.46 0.31 0.18 0.09 0.03 0.02 0.04 0.04 0.04
0.00 0.00 0.00 0.01 0.01 0.01 0.03 0.08 0.17 0.35 0.37 0.63 0.82 0.71 1.03 1.56 1.61 1.25 1.47 1.48 1.11 0.81 0.59 0.30 0.09 0.06 0.03 0.02 0.04 0.05 0.07 0.12
0.00 0.00 0.00 0.00 0.00 0.04 0.10 0.14 0.25 0.41 0.59 0.74 0.80 0.68 1.07 1.00 0.69 0.52 0.42 0.50 0.46 0.25 0.13 0.10 0.08 0.06 0.04 0.04 0.05 0.10 0.14 0.09
0.00 0.00 0.00 0.00 0.05 0.09 0.06 0.07 0.20 0.29 0.31 0.44 0.36 0.33 0.38 0.35 0.26 0.18 0.17 0.15 0.12 0.07 0.06 0.08 0.06 0.05 0.05 0.09 0.12 0.10 0.10 0.09
0.00 0.00 0.00 0.01 0.04 0.04 0.02 0.03 0.08 0.12 0.12 0.16 0.13 0.23 0.17 0.14 0.09 0.06 0.09 0.12 0.16 0.10 0.09 0.07 0.06 0.09 0.15 0.14 0.13 0.12 0.05 0.01
0.00 0.00 0.00 0.00 0.01 0.00 0.00 0.01 0.04 0.04 0.05 0.08 0.07 0.10 0.10 0.10 0.06 0.04 0.05 0.08 0.08 0.08 0.09 0.11 0.14 0.16 0.19 0.14 0.06 0.01 0.00 0.00
0.00 0.00 0.00 0.01 0.00 0.00 0.00 0.01 0.01 0.02 0.05 0.04 0.05 0.06 0.08 0.06 0.07 0.05 0.05 0.07 0.03 0.05 0.10 0.15 0.16 0.12 0.08 0.03 0.01 0.00 0.01 0.00
0.00 0.00 0.00 0.00 0.00 0.00 0.00 0.00 0.00 0.01 0.03 0.04 0.04 0.05 0.05 0.06 0.05 0.04 0.03 0.03 0.08 0.14 0.17 0.14 0.06 0.02 0.04 0.05 0.04 0.01 0.01 0.00

GFSFLT1_prec_precacc24_048.txt.gz
Total_Precipitation_Accumulation
0.00 0.00 0.00 0.00 0.00 0.01 0.08 0.04 0.13 0.23 0.15 0.04 0.02 0.01 0.02 0.07 0.10 0.05 0.04 0.01 0.04 0.03 0.01 0.01 0.00 0.00 0.00 0.00 0.00 0.00 0.00 0.00
0.00 0.00 0.00 0.00 0.00 0.00 0.01 0.05 0.04 0.14 0.15 0.04 0.01 0.02 0.02 0.08 0.17 0.07 0.23 0.11 0.12 0.06 0.02 0.02 0.01 0.00 0.00 0.00 0.00 0.00 0.00 0.00
0.00 0.00 0.00 0.00 0.00 0.00 0.00 0.01 0.02 0.05 0.06 0.06 0.01 0.02 0.04 0.10 0.15 0.13 0.22 0.20 0.07 0.07 0.04 0.01 0.01 0.01 0.00 0.00 0.00 0.00 0.00 0.00
0.00 0.00 0.00 0.00 0.00 0.00 0.00 0.00 0.00 0.01 0.01 0.01 0.00 0.07 0.05 0.07 0.12 0.11 0.11 0.10 0.04 0.06 0.03 0.00 0.00 0.00 0.00 0.00 0.00 0.00 0.00 0.00
0.00 0.00 0.00 0.00 0.00 0.00 0.00 0.00 0.00 0.00 0.00 0.00 0.00 0.02 0.04 0.09 0.10 0.05 0.03 0.01 0.06 0.19 0.07 0.02 0.00 0.00 0.00 0.01 0.00 0.01 0.01 0.00
0.00 0.00 0.00 0.00 0.00 0.00 0.00 0.00 0.00 0.00 0.00 0.00 0.00 0.01 0.05 0.05 0.02 0.01 0.01 0.03 0.03 0.11 0.09 0.06 0.02 0.05 0.08 0.09 0.08 0.10 0.12 0.14
0.00 0.00 0.00 0.00 0.00 0.00 0.00 0.00 0.00 0.00 0.01 0.03 0.01 0.04 0.04 0.02 0.02 0.04 0.04 0.03 0.17 0.21 0.19 0.16 0.13 0.14 0.23 0.27 0.26 0.19 0.15 0.09
0.00 0.00 0.00 0.00 0.00 0.00 0.00 0.00 0.00 0.00 0.00 0.02 0.06 0.06 0.05 0.03 0.06 0.18 0.21 0.18 0.30 0.28 0.26 0.25 0.22 0.31 0.36 0.30 0.22 0.17 0.16 0.11
0.00 0.00 0.00 0.00 0.00 0.00 0.00 0.00 0.00 0.02 0.03 0.03 0.10 0.17 0.19 0.21 0.27 0.41 0.44 0.34 0.31 0.43 0.39 0.41 0.33 0.25 0.27 0.29 0.26 0.27 0.27 0.26
0.00 0.00 0.00 0.00 0.00 0.00 0.00 0.00 0.00 0.01 0.01 0.04 0.11 0.20 0.25 0.38 0.42 0.35 0.36 0.27 0.16 0.22 0.29 0.28 0.27 0.40 0.50 0.53 0.48 0.40 0.33 0.24
0.00 0.01 0.00 0.00 0.00 0.06 0.05 0.01 0.02 0.07 0.09 0.08 0.17 0.32 0.34 0.35 0.31 0.42 0.38 0.36 0.38 0.45 0.46 0.48 0.52 0.54 0.56 0.51 0.38 0.27 0.19 0.12
0.00 0.01 0.01 0.01 0.00 0.02 0.08 0.14 0.32 0.29 0.30 0.40 0.36 0.41 0.58 0.66 0.61 0.60 0.58 0.55 0.55 0.58 0.60 0.52 0.39 0.30 0.31 0.29 0.17 0.14 0.11 0.08
0.00 0.00 0.00 0.01 0.01 0.01 0.02 0.06 0.15 0.29 0.35 0.60 0.83 0.71 1.02 1.55 1.61 1.26 1.48 1.49 1.15 0.90 0.68 0.45 0.30 0.18 0.12 0.10 0.06 0.07 0.11 0.13
0.00 0.00 0.00 0.00 0.00 0.00 0.03 0.08 0.21 0.39 0.56 0.71 0.77 0.67 1.08 1.02 0.71 0.53 0.42 0.52 0.49 0.30 0.20 0.15 0.10 0.07 0.05 0.04 0.05 0.11 0.14 0.09
0.00 0.00 0.00 0.00 0.00 0.00 0.00 0.03 0.17 0.26 0.27 0.38 0.31 0.30 0.39 0.37 0.31 0.24 0.20 0.18 0.17 0.16 0.14 0.15 0.09 0.05 0.05 0.10 0.12 0.11 0.12 0.11
0.00 0.00 0.00 0.00 0.00 0.01 0.00 0.02 0.07 0.10 0.09 0.15 0.12 0.22 0.17 0.14 0.10 0.12 0.15 0.17 0.24 0.19 0.18 0.09 0.09 0.12 0.18 0.17 0.15 0.14 0.07 0.03
0.00 0.00 0.00 0.00 0.00 0.00 0.00 0.01 0.04 0.04 0.04 0.08 0.06 0.10 0.10 0.10 0.06 0.06 0.09 0.10 0.11 0.13 0.15 0.13 0.15 0.20 0.26 0.19 0.08 0.02 0.01 0.01
0.00 0.00 0.00 0.01 0.00 0.00 0.00 0.01 0.01 0.02 0.05 0.04 0.05 0.06 0.08 0.06 0.09 0.06 0.08 0.11 0.08 0.08 0.11 0.18 0.24 0.18 0.15 0.06 0.04 0.01 0.01 0.01
0.00 0.00 0.00 0.00 0.00 0.00 0.00 0.00 0.00 0.01 0.03 0.04 0.04 0.04 0.05 0.06 0.07 0.08 0.08 0.08 0.10 0.12 0.16 0.18 0.11 0.05 0.08 0.07 0.05 0.01 0.01 0.00

GFSFLT1_prec_precacc24_051.txt.gz
Total_Precipitation_Accumulation
0.00 0.00 0.00 0.00 0.00 0.02 0.27 0.31 0.30 0.32 0.32 0.10 0.06 0.02 0.03 0.06 0.08 0.05 0.04 0.01 0.04 0.03 0.01 0.01 0.00 0.00 0.00 0.00 0.00 0.00 0.00 0.00
0.00 0.00 0.00 0.00 0.00 0.00 0.03 0.10 0.11 0.29 0.27 0.09 0.03 0.02 0.01 0.05 0.16 0.07 0.23 0.11 0.12 0.06 0.02 0.02 0.01 0.01 0.00 0.00 0.00 0.00 0.00 0.00
0.00 0.00 0.00 0.00 0.00 0.00 0.00 0.02 0.04 0.10 0.15 0.17 0.04 0.01 0.00 0.05 0.13 0.15 0.22 0.20 0.07 0.07 0.05 0.04 0.03 0.02 0.00 0.00 0.00 0.00 0.00 0.00
0.00 0.00 0.00 0.00 0.00 0.00 0.00 0.00 0.01 0.03 0.05 0.16 0.04 0.01 0.01 0.05 0.12 0.12 0.11 0.11 0.05 0.06 0.04 0.03 0.04 0.03 0.01 0.00 0.00 0.00 0.00 0.00
0.00 0.00 0.00 0.00 0.00 0.00 0.00 0.00 0.00 0.00 0.01 0.03 0.01 0.00 0.02 0.09 0.10 0.05 0.03 0.01 0.07 0.19 0.07 0.02 0.01 0.01 0.01 0.03 0.01 0.01 0.01 0.00
0.00 0.00 0.00 0.00 0.00 0.00 0.00 0.00 0.00 0.00 0.00 0.00 0.00 0.01 0.03 0.04 0.01 0.01 0.01 0.03 0.03 0.11 0.09 0.06 0.02 0.05 0.08 0.11 0.10 0.12 0.13 0.15
0.00 0.00 0.00 0.00 0.00 0.00 0.00 0.00 0.00 0.00 0.00 0.00 0.00 0.03 0.03 0.02 0.02 0.03 0.04 0.03 0.17 0.21 0.19 0.16 0.13 0.14 0.22 0.26 0.29 0.21 0.17 0.12
0.00 0.00 0.00 0.00 0.00 0.00 0.00 0.00 0.00 0.00 0.00 0.00 0.01 0.02 0.02 0.01 0.05 0.17 0.19 0.16 0.29 0.27 0.25 0.25 0.22 0.30 0.35 0.30 0.23 0.19 0.18 0.14
0.00 0.00 0.00 0.00 0.00 0.00 0.00 0.00 0.00 0.00 0.00 0.00 0.02 0.05 0.08 0.14 0.22 0.38 0.42 0.32 0.30 0.42 0.39 0.41 0.33 0.25 0.26 0.29 0.26 0.27 0.28 0.29
0.00 0.00 0.00 0.00 0.00 0.00 0.00 0.00 0.00 0.00 0.00 0.01 0.06 0.12 0.16 0.30 0.36 0.30 0.31 0.25 0.15 0.22 0.29 0.28 0.26 0.39 0.50 0.53 0.48 0.40 0.35 0.28
0.00 0.01 0.00 0.00 0.00 0.02 0.01 0.00 0.02 0.07 0.09 0.02 0.06 0.19 0.23 0.26 0.25 0.38 0.35 0.35 0.38 0.45 0.46 0.47 0.51 0.54 0.56 0.51 0.40 0.30 0.25 0.19
0.00 0.01 0.01 0.01 0.00 0.01 0.05 0.12 0.32 0.28 0.29 0.30 0.23 0.27 0.49 0.60 0.56 0.56 0.56 0.54 0.54 0.58 0.60 0.52 0.39 0.30 0.33 0.37 0.41 0.47 0.45 0.38
0.00 0.00 0.00 0.01 0.01 0.01 0.02 0.06 0.14 0.23 0.33 0.55 0.76 0.62 0.94 1.48 1.55 1.23 1.46 1.47 1.14 0.90 0.68 0.45 0.30 0.19 0.13 0.13 0.19 0.21 0.24 0.27
0.00 0.00 0.00 0.00 0.00 0.00 0.01 0.06 0.17 0.36 0.53 0.68 0.74 0.65 1.03 0.96 0.67 0.51 0.42 0.52 0.49 0.30 0.20 0.15 0.11 0.07 0.05 0.05 0.09 0.20 0.27 0.16
0.00 0.00 0.00 0.00 0.00 0.00 0.00 0.02 0.17 0.26 0.25 0.37 0.29 0.26 0.35 0.35 0.30 0.24 0.20 0.17 0.17 0.16 0.15 0.16 0.11 0.06 0.04 0.07 0.11 0.11 0.12 0.11
0.00 0.00 0.00 0.00 0.00 0.00 0.00 0.02 0.07 0.10 0.09 0.14 0.11 0.21 0.16 0.14 0.10 0.11 0.15 0.18 0.25 0.21 0.21 0.11 0.11 0.11 0.12 0.15 0.15 0.14 0.08 0.04
0.00 0.00 0.00 0.00 0.00 0.00 0.00 0.01 0.04 0.04 0.04 0.08 0.06 0.10 0.10 0.10 0.06 0.05 0.09 0.11 0.13 0.18 0.20 0.20 0.17 0.17 0.31 0.29 0.16 0.06 0.03 0.03
0.00 0.00 0.00 0.01 0.00 0.00 0.00 0.01 0.01 0.02 0.05 0.04 0.05 0.06 0.08 0.06 0.08 0.06 0.08 0.11 0.09 0.10 0.11 0.16 0.21 0.23 0.28 0.15 0.13 0.06 0.07 0.06
0.00 0.00 0.00 0.00 0.00 0.00 0.00 0.00 0.00 0.01 0.03 0.04 0.04 0.04 0.05 0.06 0.06 0.08 0.08 0.07 0.09 0.09 0.09 0.13 0.12 0.10 0.16 0.13 0.10 0.03 0.03 0.02

GFSFLT1_prec_precacc24_054.txt.gz
Total_Precipitation_Accumulation
0.00 0.00 0.00 0.00 0.00 0.04 0.31 0.37 0.33 0.32 0.38 0.25 0.19 0.12 0.10 0.11 0.09 0.05 0.04 0.01 0.04 0.03 0.01 0.01 0.00 0.00 0.00 0.00 0.00 0.00 0.00 0.00
0.00 0.00 0.00 0.00 0.00 0.01 0.04 0.20 0.19 0.33 0.31 0.15 0.10 0.07 0.03 0.06 0.15 0.07 0.23 0.11 0.12 0.06 0.02 0.02 0.01 0.01 0.01 0.01 0.00 0.00 0.00 0.00
0.00 0.00 0.00 0.00 0.00 0.00 0.00 0.03 0.07 0.16 0.21 0.22 0.07 0.03 0.01 0.03 0.10 0.13 0.22 0.20 0.07 0.07 0.05 0.04 0.03 0.02 0.00 0.01 0.00 0.00 0.00 0.00
0.00 0.00 0.00 0.00 0.00 0.00 0.00 0.00 0.02 0.04 0.11 0.21 0.14 0.09 0.05 0.02 0.02 0.06 0.10 0.11 0.05 0.06 0.04 0.03 0.04 0.03 0.01 0.00 0.00 0.00 0.00 0.00
0.00 0.00 0.00 0.00 0.00 0.00 0.00 0.00 0.00 0.01 0.02 0.05 0.04 0.04 0.02 0.01 0.01 0.02 0.03 0.01 0.07 0.19 0.07 0.02 0.01 0.01 0.01 0.03 0.02 0.02 0.01 0.01
0.00 0.00 0.00 0.00 0.00 0.00 0.00 0.00 0.00 0.00 0.00 0.01 0.01 0.01 0.00 0.00 0.00 0.00 0.00 0.02 0.03 0.11 0.09 0.06 0.03 0.05 0.08 0.11 0.10 0.12 0.13 0.18
0.00 0.00 0.00 0.00 0.00 0.00 0.00 0.00 0.00 0.00 0.00 0.00 0.00 0.03 0.01 0.00 0.01 0.02 0.03 0.02 0.16 0.20 0.19 0.16 0.16 0.15 0.23 0.29 0.31 0.21 0.17 0.13
0.00 0.00 0.00 0.00 0.00 0.00 0.00 0.00 0.00 0.00 0.00 0.00 0.00 0.01 0.01 0.00 0.02 0.13 0.16 0.14 0.27 0.26 0.25 0.24 0.22 0.30 0.35 0.30 0.25 0.18 0.19 0.15
0.00 0.00 0.00 0.00 0.00 0.00 0.00 0.00 0.00 0.00 0.00 0.00 0.00 0.01 0.01 0.05 0.12 0.30 0.36 0.28 0.27 0.41 0.35 0.38 0.33 0.24 0.25 0.26 0.23 0.27 0.28 0.29
0.00 0.00 0.00 0.00 0.00 0.00 0.00 0.00 0.00 0.00 0.00 0.00 0.01 0.06 0.12 0.22 0.29 0.26 0.30 0.23 0.14 0.21 0.28 0.27 0.26 0.37 0.46 0.48 0.48 0.40 0.35 0.28
0.00 0.01 0.00 0.00 0.00 0.02 0.01 0.00 0.02 0.07 0.09 0.02 0.04 0.13 0.13 0.17 0.18 0.32 0.32 0.34 0.37 0.45 0.46 0.45 0.44 0.47 0.52 0.50 0.40 0.30 0.25 0.19
0.00 0.01 0.01 0.01 0.00 0.01 0.05 0.12 0.32 0.28 0.29 0.29 0.21 0.18 0.37 0.50 0.47 0.49 0.52 0.53 0.53 0.54 0.50 0.42 0.35 0.30 0.33 0.37 0.41 0.47 0.45 0.39
0.00 0.00 0.00 0.01 0.01 0.01 0.02 0.06 0.14 0.23 0.33 0.54 0.74 0.58 0.87 1.42 1.49 1.17 1.42 1.44 1.11 0.87 0.67 0.45 0.30 0.19 0.13 0.13 0.19 0.21 0.23 0.27
0.00 0.00 0.00 0.00 0.00 0.00 0.01 0.06 0.17 0.36 0.53 0.68 0.74 0.63 1.02 0.94 0.64 0.48 0.40 0.49 0.47 0.29 0.19 0.14 0.10 0.07 0.05 0.05 0.09 0.15 0.22 0.18
0.00 0.00 0.00 0.00 0.00 0.00 0.00 0.02 0.17 0.25 0.24 0.35 0.27 0.23 0.33 0.34 0.30 0.23 0.20 0.17 0.17 0.16 0.15 0.16 0.11 0.06 0.04 0.04 0.04 0.07 0.13 0.13
0.00 0.00 0.00 0.00 0.00 0.00 0.00 0.01 0.05 0.09 0.08 0.14 0.11 0.21 0.16 0.15 0.10 0.12 0.15 0.18 0.25 0.21 0.21 0.11 0.10 0.10 0.09 0.10 0.12 0.14 0.08 0.04
0.00 0.00 0.00 0.00 0.00 0.00 0.00 0.01 0.04 0.04 0.04 0.08 0.06 0.10 0.10 0.10 0.06 0.05 0.09 0.11 0.13 0.18 0.20 0.19 0.16 0.16 0.26 0.24 0.17 0.08 0.05 0.04
0.00 0.00 0.00 0.01 0.00 0.00 0.00 0.01 0.01 0.02 0.05 0.04 0.05 0.06 0.08 0.06 0.08 0.06 0.08 0.11 0.09 0.10 0.11 0.15 0.18 0.18 0.27 0.18 0.17 0.08 0.09 0.10
0.00 0.00 0.00 0.00 0.00 0.00 0.00 0.00 0.00 0.01 0.03 0.04 0.04 0.04 0.05 0.06 0.06 0.08 0.08 0.08 0.09 0.08 0.09 0.11 0.10 0.11 0.19 0.14 0.14 0.04 0.04 0.04

GFSFLT1_prec_precacc24_057.txt.gz
Total_Precipitation_Accumulation
0.00 0.00 0.00 0.00 0.00 0.05 0.31 0.36 0.32 0.29 0.33 0.28 0.30 0.30 0.29 0.19 0.06 0.03 0.03 0.01 0.04 0.03 0.01 0.01 0.00 0.00 0.00 0.00 0.00 0.00 0.00 0.00
0.00 0.00 0.00 0.00 0.00 0.01 0.05 0.21 0.19 0.32 0.30 0.17 0.15 0.15 0.10 0.05 0.07 0.06 0.23 0.11 0.12 0.06 0.02 0.02 0.01 0.01 0.01 0.01 0.00 0.00 0.00 0.00
0.00 0.00 0.00 0.00 0.00 0.01 0.01 0.03 0.08 0.16 0.22 0.23 0.08 0.04 0.04 0.01 0.02 0.10 0.21 0.21 0.07 0.07 0.05 0.04 0.03 0.02 0.00 0.01 0.00 0.00 0.00 0.00
0.00 0.00 0.00 0.00 0.00 0.00 0.01 0.00 0.02 0.04 0.13 0.23 0.15 0.11 0.06 0.04 0.02 0.05 0.08 0.13 0.04 0.06 0.04 0.03 0.04 0.03 0.01 0.00 0.00 0.00 0.00 0.00
0.00 0.00 0.00 0.00 0.00 0.00 0.01 0.00 0.00 0.01 0.02 0.05 0.05 0.07 0.04 0.01 0.00 0.01 0.03 0.03 0.09 0.19 0.07 0.02 0.01 0.01 0.01 0.03 0.02 0.02 0.01 0.01
0.00 0.00 0.00 0.00 0.00 0.00 0.00 0.01 0.00 0.00 0.00 0.01 0.01 0.01 0.01 0.01 0.01 0.01 0.01 0.04 0.07 0.12 0.09 0.06 0.04 0.06 0.09 0.11 0.10 0.12 0.13 0.19
0.00 0.00 0.00 0.00 0.00 0.00 0.00 0.01 0.01 0.00 0.00 0.00 0.00 0.03 0.01 0.00 0.01 0.02 0.03 0.03 0.18 0.22 0.18 0.16 0.17 0.20 0.29 0.32 0.38 0.26 0.18 0.17
0.00 0.00 0.00 0.00 0.00 0.00 0.00 0.00 0.00 0.01 0.00 0.00 0.00 0.01 0.01 0.00 0.01 0.12 0.15 0.13 0.26 0.25 0.23 0.22 0.20 0.30 0.36 0.33 0.33 0.26 0.25 0.22
0.00 0.00 0.00 0.00 0.00 0.00 0.00 0.00 0.00 0.00 0.00 0.00 0.00 0.01 0.01 0.04 0.08 0.24 0.32 0.22 0.14 0.28 0.30 0.34 0.29 0.22 0.25 0.26 0.23 0.26 0.29 0.31
0.00 0.00 0.00 0.00 0.00 0.00 0.00 0.00 0.00 0.00 0.00 0.00 0.01 0.07 0.12 0.20 0.23 0.21 0.27 0.22 0.13 0.20 0.28 0.27 0.26 0.36 0.44 0.44 0.41 0.37 0.35 0.28
0.00 0.01 0.00 0.00 0.00 0.02 0.01 0.00 0.02 0.07 0.09 0.02 0.03 0.13 0.12 0.13 0.13 0.30 0.31 0.33 0.37 0.45 0.46 0.45 0.43 0.40 0.42 0.42 0.36 0.29 0.25 0.19
0.00 0.01 0.01 0.01 0.00 0.01 0.05 0.12 0.32 0.28 0.29 0.29 0.20 0.18 0.31 0.43 0.44 0.48 0.50 0.51 0.52 0.53 0.50 0.40 0.29 0.25 0.31 0.36 0.41 0.47 0.45 0.39
0.00 0.00 0.00 0.01 0.01 0.01 0.02 0.06 0.14 0.23 0.33 0.54 0.73 0.55 0.83 1.36 1.43 1.14 1.39 1.43 1.10 0.87 0.67 0.44 0.30 0.18 0.13 0.13 0.18 0.21 0.23 0.24
0.00 0.00 0.00 0.00 0.00 0.00 0.01 0.06 0.17 0.36 0.53 0.68 0.74 0.62 1.00 0.92 0.61 0.44 0.37 0.49 0.47 0.28 0.19 0.13 0.09 0.06 0.04 0.04 0.09 0.15 0.19 0.15
0.00 0.00 0.00 0.00 0.00 0.00 0.00 0.02 0.17 0.25 0.23 0.33 0.26 0.20 0.32 0.33 0.29 0.23 0.19 0.17 0.17 0.16 0.15 0.15 0.11 0.05 0.04 0.04 0.03 0.04 0.07 0.09
0.00 0.00 0.00 0.00 0.00 0.00 0.00 0.01 0.05 0.07 0.05 0.10 0.09 0.20 0.16 0.15 0.10 0.13 0.15 0.18 0.25 0.21 0.21 0.11 0.10 0.10 0.09 0.09 0.04 0.04 0.05 0.04
0.00 0.00 0.00 0.00 0.00 0.00 0.00 0.00 0.02 0.03 0.03 0.07 0.06 0.10 0.10 0.10 0.06 0.05 0.09 0.11 0.13 0.18 0.20 0.19 0.16 0.15 0.24 0.21 0.13 0.07 0.05 0.05
0.00 0.00 0.00 0.01 0.00 0.00 0.00 0.00 0.01 0.02 0.05 0.04 0.05 0.06 0.08 0.06 0.08 0.06 0.08 0.11 0.09 0.10 0.11 0.15 0.18 0.18 0.27 0.19 0.18 0.09 0.09 0.10
0.00 0.00 0.00 0.00 0.00 0.00 0.00 0.00 0.00 0.01 0.03 0.04 0.04 0.04 0.05 0.06 0.06 0.08 0.08 0.08 0.09 0.08 0.09 0.11 0.10 0.12 0.20 0.16 0.16 0.06 0.05 0.06

GFSFLT1_prec_precacc24_060.txt.gz
Total_Precipitation_Accumulation
0.00 0.00 0.00 0.00 0.00 0.05 0.31 0.36 0.32 0.29 0.32 0.28 0.36 0.48 0.53 0.37 0.16 0.06 0.03 0.01 0.04 0.04 0.01 0.02 0.01 0.00 0.00 0.00 0.00 0.00 0.00 0.00
0.00 0.00 0.00 0.00 0.00 0.02 0.05 0.21 0.19 0.32 0.28 0.18 0.20 0.26 0.39 0.20 0.08 0.04 0.03 0.03 0.10 0.06 0.02 0.02 0.01 0.01 0.01 0.01 0.00 0.00 0.00 0.00
0.00 0.00 0.00 0.00 0.00 0.01 0.01 0.03 0.08 0.16 0.22 0.23 0.09 0.09 0.11 0.08 0.03 0.07 0.06 0.10 0.07 0.07 0.05 0.04 0.03 0.02 0.00 0.01 0.00 0.00 0.00 0.00
0.00 0.00 0.00 0.00 0.00 0.01 0.01 0.00 0.02 0.05 0.13 0.23 0.16 0.11 0.08 0.07 0.03 0.04 0.05 0.08 0.04 0.06 0.04 0.03 0.04 0.03 0.01 0.00 0.00 0.00 0.00 0.00
0.00 0.00 0.00 0.00 0.00 0.00 0.01 0.01 0.00 0.01 0.03 0.06 0.05 0.07 0.05 0.01 0.00 0.02 0.03 0.04 0.08 0.17 0.07 0.02 0.01 0.01 0.02 0.04 0.02 0.02 0.01 0.01
0.00 0.00 0.00 0.00 0.00 0.00 0.01 0.01 0.00 0.00 0.01 0.01 0.01 0.01 0.01 0.01 0.01 0.01 0.01 0.05 0.07 0.09 0.09 0.06 0.04 0.06 0.09 0.15 0.12 0.12 0.13 0.21
0.00 0.00 0.00 0.00 0.00 0.00 0.00 0.01 0.01 0.00 0.00 0.00 0.00 0.02 0.01 0.00 0.00 0.00 0.03 0.03 0.17 0.20 0.17 0.16 0.17 0.19 0.22 0.26 0.33 0.25 0.18 0.17
0.00 0.00 0.00 0.00 0.00 0.00 0.00 0.00 0.01 0.01 0.00 0.00 0.00 0.01 0.01 0.00 0.00 0.05 0.12 0.11 0.26 0.25 0.24 0.20 0.13 0.19 0.28 0.29 0.33 0.28 0.29 0.26
0.00 0.00 0.00 0.00 0.00 0.00 0.00 0.00 0.00 0.01 0.00 0.00 0.00 0.01 0.00 0.00 0.02 0.13 0.21 0.15 0.12 0.21 0.20 0.27 0.26 0.22 0.26 0.27 0.24 0.25 0.26 0.26
0.00 0.00 0.00 0.00 0.00 0.00 0.00 0.00 0.00 0.00 0.00 0.00 0.00 0.01 0.01 0.01 0.06 0.12 0.16 0.18 0.12 0.20 0.28 0.29 0.27 0.37 0.44 0.45 0.40 0.32 0.33 0.26
0.00 0.01 0.00 0.00 0.00 0.02 0.01 0.00 0.02 0.07 0.09 0.02 0.00 0.00 0.01 0.04 0.05 0.10 0.17 0.27 0.35 0.44 0.45 0.46 0.45 0.42 0.43 0.41 0.35 0.28 0.25 0.21
0.00 0.01 0.01 0.01 0.00 0.01 0.05 0.12 0.32 0.28 0.28 0.24 0.14 0.07 0.12 0.31 0.37 0.35 0.39 0.45 0.48 0.52 0.50 0.40 0.30 0.26 0.31 0.36 0.40 0.44 0.44 0.38
0.00 0.00 0.00 0.01 0.01 0.01 0.02 0.06 0.14 0.23 0.32 0.42 0.47 0.46 0.64 1.22 1.27 1.09 1.34 1.40 1.08 0.87 0.67 0.44 0.30 0.18 0.12 0.12 0.16 0.18 0.20 0.22
0.00 0.00 0.00 0.00 0.00 0.00 0.01 0.06 0.17 0.35 0.51 0.58 0.58 0.58 0.74 0.81 0.53 0.39 0.33 0.47 0.47 0.28 0.19 0.13 0.08 0.05 0.03 0.03 0.07 0.12 0.17 0.15
0.00 0.00 0.00 0.00 0.00 0.00 0.00 0.02 0.16 0.23 0.20 0.27 0.24 0.15 0.22 0.29 0.27 0.21 0.18 0.17 0.16 0.16 0.14 0.15 0.10 0.05 0.03 0.03 0.02 0.03 0.05 0.06
0.00 0.00 0.00 0.00 0.00 0.00 0.00 0.01 0.04 0.02 0.02 0.08 0.08 0.13 0.15 0.14 0.10 0.13 0.15 0.18 0.25 0.21 0.21 0.11 0.10 0.10 0.09 0.08 0.04 0.03 0.04 0.04
0.00 0.00 0.00 0.00 0.00 0.00 0.00 0.00 0.01 0.01 0.02 0.06 0.05 0.09 0.09 0.10 0.06 0.05 0.09 0.11 0.13 0.18 0.20 0.19 0.16 0.15 0.24 0.21 0.13 0.07 0.05 0.04
0.00 0.00 0.00 0.00 0.00 0.00 0.00 0.00 0.00 0.01 0.04 0.04 0.05 0.06 0.08 0.06 0.08 0.06 0.08 0.11 0.09 0.10 0.11 0.16 0.19 0.18 0.27 0.19 0.18 0.09 0.09 0.10
0.00 0.00 0.00 0.00 0.00 0.00 0.00 0.00 0.00 0.01 0.03 0.04 0.04 0.04 0.05 0.06 0.06 0.08 0.08 0.08 0.09 0.08 0.09 0.12 0.10 0.12 0.20 0.16 0.16 0.06 0.05 0.06

GFSFLT1_prec_precacc24_063.txt.gz
Total_Precipitation_Accumulation
0.00 0.00 0.00 0.00 0.00 0.05 0.31 0.36 0.32 0.30 0.32 0.28 0.36 0.50 0.66 0.40 0.18 0.05 0.03 0.00 0.01 0.02 0.01 0.04 0.03 0.03 0.00 0.00 0.00 0.00 0.00 0.00
0.00 0.00 0.00 0.00 0.00 0.02 0.05 0.21 0.20 0.32 0.28 0.18 0.21 0.29 0.46 0.25 0.18 0.06 0.01 0.00 0.02 0.03 0.01 0.03 0.02 0.04 0.01 0.01 0.00 0.00 0.00 0.00
0.00 0.00 0.00 0.00 0.00 0.01 0.02 0.03 0.08 0.17 0.22 0.23 0.09 0.09 0.14 0.13 0.09 0.09 0.02 0.02 0.01 0.03 0.04 0.04 0.04 0.04 0.02 0.01 0.00 0.00 0.00 0.00
0.00 0.00 0.00 0.00 0.00 0.01 0.01 0.00 0.02 0.05 0.13 0.24 0.16 0.12 0.10 0.11 0.05 0.03 0.00 0.04 0.00 0.00 0.02 0.03 0.04 0.03 0.01 0.00 0.00 0.00 0.00 0.00
0.00 0.00 0.00 0.00 0.00 0.00 0.01 0.01 0.00 0.01 0.03 0.06 0.05 0.07 0.06 0.02 0.00 0.01 0.01 0.03 0.03 0.00 0.02 0.01 0.01 0.01 0.02 0.04 0.02 0.02 0.01 0.01
0.00 0.00 0.00 0.00 0.00 0.00 0.01 0.01 0.01 0.00 0.01 0.01 0.01 0.01 0.01 0.01 0.01 0.00 0.01 0.03 0.05 0.01 0.04 0.04 0.04 0.06 0.09 0.15 0.11 0.10 0.09 0.14
0.00 0.00 0.00 0.00 0.00 0.00 0.00 0.01 0.01 0.00 0.00 0.00 0.00 0.00 0.00 0.00 0.00 0.00 0.00 0.01 0.06 0.10 0.10 0.11 0.15 0.17 0.20 0.24 0.30 0.19 0.14 0.15
0.00 0.00 0.00 0.00 0.00 0.00 0.00 0.00 0.01 0.01 0.00 0.00 0.00 0.00 0.00 0.00 0.00 0.00 0.00 0.00 0.10 0.17 0.13 0.16 0.13 0.17 0.25 0.26 0.32 0.28 0.29 0.25
0.00 0.00 0.00 0.00 0.00 0.00 0.00 0.00 0.00 0.01 0.01 0.00 0.00 0.00 0.00 0.00 0.00 0.01 0.01 0.01 0.02 0.09 0.16 0.26 0.26 0.19 0.25 0.28 0.27 0.26 0.26 0.29
0.00 0.00 0.00 0.00 0.00 0.00 0.00 0.00 0.00 0.00 0.01 0.00 0.00 0.00 0.00 0.00 0.03 0.04 0.04 0.05 0.03 0.08 0.19 0.26 0.26 0.37 0.44 0.46 0.42 0.34 0.35 0.26
0.00 0.00 0.00 0.00 0.00 0.02 0.01 0.00 0.01 0.03 0.03 0.02 0.00 0.00 0.00 0.03 0.02 0.03 0.06 0.10 0.16 0.24 0.31 0.36 0.41 0.41 0.44 0.43 0.36 0.30 0.27 0.20
0.00 0.00 0.00 0.00 0.00 0.01 0.05 0.06 0.03 0.08 0.14 0.19 0.10 0.04 0.04 0.10 0.17 0.21 0.21 0.36 0.39 0.36 0.38 0.36 0.29 0.25 0.31 0.37 0.41 0.44 0.43 0.37
0.00 0.00 0.01 0.01 0.00 0.00 0.01 0.05 0.05 0.07 0.20 0.22 0.22 0.16 0.21 0.60 0.78 0.77 1.03 1.30 0.97 0.83 0.66 0.43 0.28 0.18 0.12 0.12 0.16 0.18 0.20 0.20
0.00 0.00 0.00 0.01 0.04 0.02 0.00 0.02 0.04 0.13 0.18 0.22 0.28 0.34 0.45 0.54 0.26 0.22 0.27 0.43 0.44 0.27 0.18 0.12 0.08 0.05 0.03 0.03 0.06 0.12 0.16 0.13
0.00 0.00 0.00 0.00 0.03 0.05 0.05 0.03 0.07 0.08 0.11 0.19 0.17 0.14 0.16 0.21 0.22 0.17 0.14 0.15 0.14 0.15 0.14 0.15 0.10 0.05 0.03 0.03 0.02 0.03 0.04 0.05
0.00 0.00 0.00 0.00 0.00 0.01 0.02 0.04 0.06 0.06 0.09 0.10 0.07 0.09 0.13 0.11 0.07 0.11 0.15 0.16 0.24 0.21 0.20 0.11 0.10 0.10 0.08 0.08 0.04 0.03 0.04 0.04
0.00 0.00 0.00 0.00 0.00 0.00 0.00 0.00 0.02 0.03 0.03 0.09 0.09 0.08 0.09 0.10 0.05 0.06 0.09 0.11 0.13 0.18 0.20 0.19 0.16 0.15 0.23 0.20 0.13 0.07 0.05 0.04
0.00 0.00 0.00 0.00 0.00 0.00 0.00 0.00 0.00 0.01 0.04 0.04 0.05 0.06 0.08 0.06 0.09 0.06 0.08 0.11 0.09 0.10 0.12 0.16 0.19 0.19 0.28 0.20 0.19 0.09 0.09 0.10
0.00 0.00 0.00 0.00 0.00 0.00 0.00 0.00 0.00 0.01 0.03 0.03 0.04 0.04 0.06 0.08 0.09 0.08 0.08 0.08 0.09 0.08 0.09 0.12 0.10 0.13 0.21 0.17 0.17 0.07 0.05 0.06

GFSFLT1_prec_precacc24_066.txt.gz
Total_Precipitation_Accumulation
0.00 0.00 0.00 0.00 0.00 0.05 0.31 0.37 0.33 0.30 0.32 0.28 0.37 0.50 0.66 0.41 0.19 0.05 0.03 0.00 0.01 0.02 0.02 0.04 0.03 0.03 0.00 0.00 0.00 0.00 0.00 0.00
0.00 0.00 0.00 0.00 0.00 0.02 0.05 0.22 0.21 0.33 0.28 0.19 0.21 0.30 0.48 0.27 0.21 0.08 0.02 0.01 0.02 0.03 0.02 0.03 0.02 0.05 0.01 0.01 0.00 0.00 0.00 0.00
0.00 0.00 0.00 0.00 0.00 0.01 0.02 0.03 0.09 0.17 0.22 0.23 0.10 0.09 0.15 0.16 0.16 0.18 0.08 0.03 0.01 0.03 0.04 0.05 0.04 0.05 0.02 0.01 0.00 0.00 0.00 0.00
0.00 0.00 0.00 0.00 0.00 0.01 0.01 0.01 0.03 0.05 0.14 0.24 0.16 0.12 0.11 0.14 0.16 0.25 0.16 0.06 0.00 0.00 0.02 0.04 0.04 0.04 0.02 0.01 0.00 0.00 0.00 0.00
0.00 0.00 0.00 0.00 0.00 0.00 0.01 0.01 0.00 0.02 0.03 0.06 0.06 0.07 0.06 0.02 0.02 0.09 0.15 0.07 0.04 0.00 0.00 0.01 0.01 0.01 0.04 0.04 0.02 0.02 0.01 0.00
0.00 0.00 0.00 0.00 0.00 0.00 0.01 0.01 0.01 0.01 0.01 0.02 0.02 0.01 0.01 0.01 0.01 0.02 0.07 0.08 0.06 0.01 0.00 0.02 0.03 0.03 0.05 0.14 0.11 0.09 0.05 0.10
0.00 0.00 0.00 0.00 0.00 0.00 0.00 0.01 0.01 0.01 0.00 0.01 0.00 0.00 0.00 0.00 0.00 0.00 0.03 0.02 0.04 0.04 0.01 0.03 0.10 0.12 0.14 0.20 0.28 0.17 0.13 0.14
0.00 0.00 0.00 0.00 0.00 0.00 0.00 0.00 0.01 0.01 0.00 0.00 0.01 0.00 0.00 0.00 0.00 0.00 0.00 0.00 0.01 0.03 0.02 0.04 0.06 0.11 0.18 0.20 0.29 0.27 0.29 0.25
0.00 0.00 0.00 0.00 0.00 0.00 0.00 0.00 0.00 0.01 0.01 0.00 0.00 0.00 0.00 0.00 0.00 0.00 0.00 0.00 0.00 0.00 0.02 0.07 0.14 0.13 0.17 0.22 0.25 0.26 0.26 0.30
0.00 0.00 0.00 0.00 0.00 0.00 0.00 0.00 0.00 0.00 0.01 0.01 0.00 0.00 0.00 0.00 0.00 0.00 0.02 0.04 0.01 0.01 0.05 0.09 0.14 0.24 0.34 0.40 0.40 0.34 0.35 0.26
0.00 0.00 0.00 0.00 0.00 0.01 0.01 0.00 0.00 0.00 0.01 0.01 0.00 0.00 0.00 0.00 0.00 0.00 0.01 0.04 0.06 0.09 0.16 0.24 0.29 0.30 0.35 0.37 0.35 0.30 0.27 0.19
0.00 0.00 0.00 0.00 0.00 0.00 0.02 0.03 0.01 0.05 0.07 0.14 0.08 0.01 0.01 0.02 0.03 0.04 0.05 0.07 0.10 0.22 0.29 0.27 0.23 0.21 0.29 0.37 0.40 0.43 0.42 0.36
0.00 0.00 0.01 0.00 0.00 0.00 0.00 0.03 0.02 0.04 0.12 0.16 0.19 0.12 0.06 0.07 0.12 0.12 0.24 0.37 0.51 0.72 0.59 0.37 0.25 0.15 0.11 0.12 0.15 0.17 0.19 0.20
0.00 0.00 0.01 0.02 0.07 0.08 0.07 0.05 0.04 0.05 0.05 0.05 0.08 0.12 0.14 0.09 0.06 0.06 0.03 0.06 0.23 0.25 0.17 0.09 0.05 0.03 0.02 0.03 0.06 0.11 0.16 0.13
0.00 0.00 0.00 0.00 0.04 0.09 0.14 0.15 0.12 0.08 0.05 0.02 0.01 0.03 0.06 0.09 0.10 0.07 0.08 0.10 0.07 0.11 0.11 0.12 0.09 0.04 0.03 0.03 0.02 0.03 0.04 0.05
0.00 0.00 0.00 0.00 0.00 0.01 0.03 0.04 0.05 0.09 0.10 0.05 0.08 0.07 0.08 0.05 0.04 0.08 0.11 0.13 0.19 0.18 0.18 0.10 0.10 0.09 0.08 0.08 0.04 0.03 0.04 0.04
0.00 0.00 0.00 0.00 0.00 0.00 0.00 0.00 0.02 0.02 0.02 0.07 0.11 0.05 0.09 0.10 0.09 0.10 0.10 0.08 0.11 0.17 0.19 0.19 0.15 0.14 0.22 0.20 0.13 0.07 0.05 0.04
0.00 0.00 0.00 0.00 0.00 0.00 0.00 0.00 0.00 0.00 0.00 0.01 0.03 0.03 0.04 0.05 0.11 0.10 0.10 0.12 0.13 0.10 0.13 0.16 0.19 0.18 0.28 0.20 0.19 0.09 0.09 0.10
0.00 0.00 0.00 0.00 0.00 0.00 0.00 0.00 0.00 0.00 0.00 0.00 0.01 0.01 0.03 0.05 0.08 0.09 0.10 0.12 0.13 0.11 0.12 0.14 0.13 0.14 0.23 0.20 0.20 0.07 0.05 0.06

GFSFLT1_prec_precacc24_069.txt.gz
Total_Precipitation_Accumulation
0.00 0.00 0.00 0.00 0.00 0.05 0.31 0.36 0.30 0.27 0.32 0.28 0.37 0.50 0.66 0.42 0.20 0.11 0.14 0.05 0.01 0.02 0.02 0.04 0.03 0.03 0.00 0.00 0.00 0.00 0.00 0.00
0.00 0.00 0.00 0.00 0.00 0.02 0.05 0.22 0.20 0.31 0.28 0.19 0.22 0.30 0.48 0.27 0.21 0.08 0.03 0.04 0.04 0.03 0.02 0.03 0.02 0.05 0.01 0.01 0.00 0.00 0.00 0.00
0.00 0.00 0.00 0.00 0.00 0.01 0.02 0.03 0.09 0.17 0.23 0.23 0.10 0.10 0.15 0.17 0.18 0.22 0.09 0.05 0.03 0.05 0.05 0.05 0.04 0.05 0.02 0.01 0.00 0.00 0.00 0.00
0.00 0.00 0.00 0.00 0.00 0.01 0.01 0.01 0.03 0.06 0.14 0.24 0.16 0.13 0.12 0.15 0.23 0.44 0.20 0.08 0.05 0.03 0.03 0.04 0.04 0.04 0.02 0.01 0.00 0.00 0.00 0.00
0.00 0.00 0.00 0.00 0.00 0.00 0.01 0.01 0.00 0.02 0.03 0.07 0.06 0.07 0.07 0.03 0.03 0.20 0.32 0.14 0.07 0.05 0.03 0.02 0.01 0.01 0.04 0.04 0.02 0.00 0.01 0.00
0.00 0.00 0.00 0.00 0.00 0.00 0.01 0.01 0.01 0.01 0.01 0.02 0.02 0.01 0.01 0.01 0.01 0.04 0.22 0.22 0.12 0.05 0.01 0.04 0.04 0.03 0.04 0.10 0.06 0.04 0.03 0.09
0.00 0.00 0.00 0.00 0.00 0.00 0.00 0.01 0.01 0.01 0.00 0.01 0.00 0.00 0.00 0.00 0.00 0.00 0.04 0.12 0.12 0.10 0.04 0.03 0.08 0.10 0.10 0.17 0.24 0.14 0.09 0.13
0.00 0.00 0.00 0.00 0.00 0.00 0.00 0.00 0.01 0.01 0.00 0.00 0.01 0.00 0.00 0.00 0.00 0.00 0.00 0.01 0.06 0.07 0.05 0.05 0.04 0.05 0.08 0.15 0.27 0.26 0.25 0.24
0.00 0.00 0.00 0.00 0.00 0.00 0.00 0.00 0.00 0.01 0.01 0.00 0.00 0.00 0.00 0.00 0.00 0.00 0.00 0.00 0.00 0.00 0.01 0.03 0.04 0.04 0.06 0.08 0.14 0.21 0.23 0.28
0.00 0.00 0.00 0.00 0.00 0.00 0.00 0.00 0.00 0.00 0.01 0.01 0.00 0.00 0.00 0.00 0.00 0.00 0.00 0.00 0.00 0.00 0.00 0.02 0.02 0.06 0.16 0.24 0.31 0.30 0.34 0.26
0.00 0.00 0.00 0.00 0.00 0.00 0.00 0.00 0.00 0.00 0.00 0.01 0.00 0.00 0.00 0.00 0.00 0.00 0.00 0.00 0.00 0.00 0.01 0.03 0.05 0.10 0.24 0.30 0.30 0.27 0.26 0.19
0.00 0.00 0.00 0.00 0.00 0.00 0.00 0.00 0.01 0.01 0.00 0.02 0.02 0.00 0.00 0.00 0.00 0.00 0.00 0.00 0.00 0.01 0.04 0.06 0.08 0.12 0.25 0.35 0.39 0.43 0.41 0.34
0.00 0.00 0.01 0.01 0.01 0.01 0.01 0.01 0.02 0.01 0.04 0.03 0.08 0.06 0.02 0.00 0.01 0.01 0.01 0.01 0.03 0.09 0.09 0.15 0.21 0.13 0.10 0.12 0.15 0.16 0.17 0.17
0.00 0.01 0.02 0.04 0.13 0.15 0.15 0.11 0.07 0.06 0.05 0.04 0.03 0.06 0.06 0.03 0.01 0.01 0.00 0.01 0.03 0.05 0.07 0.05 0.02 0.00 0.01 0.01 0.04 0.10 0.13 0.10
0.03 0.03 0.04 0.07 0.12 0.16 0.20 0.17 0.15 0.09 0.07 0.03 0.03 0.03 0.04 0.06 0.07 0.06 0.03 0.03 0.05 0.09 0.08 0.08 0.05 0.01 0.00 0.00 0.00 0.01 0.03 0.03
0.01 0.01 0.01 0.01 0.02 0.03 0.05 0.05 0.06 0.09 0.10 0.05 0.07 0.06 0.06 0.06 0.04 0.08 0.07 0.06 0.09 0.11 0.11 0.05 0.05 0.06 0.04 0.06 0.03 0.03 0.03 0.03
0.00 0.00 0.00 0.00 0.00 0.00 0.00 0.00 0.02 0.02 0.02 0.06 0.10 0.03 0.06 0.08 0.10 0.16 0.11 0.05 0.08 0.12 0.13 0.13 0.10 0.10 0.18 0.19 0.12 0.07 0.05 0.04
0.00 0.00 0.00 0.00 0.00 0.00 0.00 0.00 0.00 0.00 0.00 0.01 0.01 0.01 0.01 0.03 0.09 0.09 0.07 0.09 0.16 0.10 0.12 0.16 0.18 0.19 0.27 0.21 0.20 0.10 0.09 0.10
0.00 0.00 0.00 0.00 0.00 0.00 0.00 0.00 0.00 0.00 0.00 0.00 0.00 0.00 0.01 0.02 0.04 0.05 0.08 0.12 0.14 0.12 0.14 0.15 0.15 0.15 0.23 0.25 0.32 0.16 0.09 0.07

GFSFLT1_prec_precacc24_072.txt.gz
Total_Precipitation_Accumulation
0.00 0.00 0.00 0.00 0.00 0.04 0.24 0.35 0.23 0.13 0.26 0.27 0.36 0.50 0.67 0.42 0.27 0.66 0.52 0.26 0.14 0.07 0.04 0.04 0.03 0.03 0.00 0.00 0.00 0.00 0.00 0.00
0.00 0.00 0.00 0.00 0.00 0.01 0.04 0.18 0.17 0.22 0.18 0.15 0.21 0.28 0.48 0.28 0.22 0.30 0.49 0.32 0.21 0.05 0.02 0.02 0.01 0.04 0.01 0.01 0.00 0.00 0.00 0.00
0.00 0.00 0.00 0.00 0.00 0.01 0.02 0.02 0.08 0.13 0.16 0.18 0.09 0.09 0.16 0.17 0.18 0.25 0.18 0.21 0.18 0.09 0.04 0.04 0.03 0.04 0.02 0.01 0.00 0.00 0.00 0.00
0.00 0.00 0.00 0.00 0.00 0.01 0.01 0.01 0.03 0.05 0.13 0.23 0.16 0.13 0.12 0.15 0.24 0.45 0.22 0.10 0.11 0.11 0.08 0.05 0.04 0.04 0.02 0.01 0.00 0.00 0.00 0.00
0.00 0.00 0.00 0.00 0.00 0.00 0.01 0.01 0.01 0.02 0.04 0.07 0.06 0.07 0.07 0.03 0.03 0.21 0.37 0.16 0.09 0.10 0.10 0.06 0.01 0.01 0.04 0.04 0.02 0.00 0.00 0.00
0.00 0.00 0.00 0.00 0.00 0.00 0.01 0.01 0.01 0.01 0.02 0.02 0.02 0.01 0.02 0.01 0.01 0.04 0.25 0.32 0.14 0.08 0.13 0.09 0.05 0.02 0.03 0.09 0.05 0.03 0.01 0.07
0.00 0.00 0.00 0.00 0.00 0.00 0.00 0.01 0.01 0.01 0.01 0.01 0.01 0.00 0.00 0.00 0.01 0.01 0.06 0.18 0.21 0.12 0.13 0.13 0.10 0.09 0.09 0.15 0.19 0.09 0.05 0.10
0.00 0.00 0.00 0.00 0.00 0.00 0.00 0.00 0.01 0.01 0.00 0.01 0.01 0.00 0.00 0.01 0.01 0.00 0.01 0.03 0.10 0.11 0.08 0.09 0.06 0.06 0.06 0.11 0.24 0.21 0.19 0.18
0.00 0.00 0.00 0.00 0.00 0.00 0.00 0.00 0.00 0.01 0.01 0.00 0.00 0.00 0.00 0.00 0.01 0.01 0.01 0.00 0.00 0.01 0.05 0.08 0.09 0.08 0.09 0.08 0.14 0.16 0.16 0.17
0.00 0.00 0.00 0.00 0.00 0.00 0.00 0.00 0.00 0.00 0.01 0.01 0.00 0.00 0.00 0.00 0.00 0.00 0.00 0.00 0.00 0.00 0.02 0.07 0.05 0.08 0.09 0.10 0.11 0.12 0.18 0.15
0.00 0.00 0.00 0.00 0.00 0.00 0.00 0.00 0.00 0.00 0.00 0.01 0.00 0.00 0.00 0.00 0.00 0.00 0.00 0.00 0.00 0.00 0.00 0.01 0.02 0.04 0.07 0.07 0.07 0.08 0.15 0.14
0.00 0.00 0.00 0.00 0.01 0.02 0.00 0.00 0.00 0.00 0.00 0.00 0.00 0.00 0.00 0.00 0.00 0.00 0.00 0.00 0.00 0.00 0.00 0.00 0.00 0.00 0.02 0.11 0.26 0.33 0.34 0.31
0.00 0.00 0.01 0.01 0.04 0.03 0.01 0.01 0.01 0.01 0.02 0.01 0.01 0.01 0.01 0.00 0.00 0.00 0.00 0.00 0.00 0.00 0.00 0.00 0.00 0.00 0.01 0.04 0.12 0.14 0.13 0.16
0.00 0.02 0.03 0.06 0.15 0.17 0.17 0.15 0.12 0.07 0.06 0.03 0.02 0.04 0.02 0.01 0.00 0.00 0.00 0.00 0.00 0.00 0.00 0.00 0.00 0.00 0.00 0.01 0.04 0.09 0.13 0.10
0.04 0.06 0.08 0.13 0.20 0.26 0.28 0.23 0.19 0.12 0.08 0.03 0.04 0.02 0.02 0.04 0.02 0.00 0.00 0.00 0.00 0.00 0.00 0.01 0.02 0.01 0.00 0.00 0.00 0.00 0.01 0.01
0.03 0.04 0.05 0.06 0.07 0.09 0.08 0.08 0.08 0.10 0.10 0.05 0.08 0.06 0.06 0.05 0.03 0.03 0.02 0.01 0.02 0.02 0.02 0.02 0.02 0.01 0.02 0.03 0.02 0.01 0.01 0.02
0.00 0.00 0.00 0.01 0.01 0.00 0.00 0.02 0.02 0.03 0.02 0.06 0.10 0.04 0.07 0.08 0.11 0.15 0.09 0.04 0.08 0.08 0.07 0.09 0.07 0.07 0.12 0.14 0.10 0.06 0.04 0.03
0.00 0.00 0.00 0.00 0.00 0.00 0.00 0.00 0.00 0.00 0.00 0.01 0.01 0.01 0.01 0.03 0.08 0.09 0.07 0.07 0.14 0.09 0.09 0.12 0.12 0.15 0.27 0.24 0.25 0.12 0.10 0.11
0.02 0.02 0.01 0.00 0.00 0.00 0.00 0.00 0.00 0.00 0.00 0.00 0.00 0.00 0.01 0.02 0.03 0.01 0.03 0.07 0.09 0.10 0.11 0.12 0.14 0.17 0.29 0.33 0.42 0.24 0.13 0.09

GFSFLT1_prec_precacc24_075.txt.gz
Total_Precipitation_Accumulation
0.00 0.00 0.00 0.00 0.00 0.02 0.05 0.08 0.06 0.04 0.10 0.22 0.32 0.49 0.66 0.41 0.27 0.68 0.62 0.66 0.31 0.13 0.07 0.06 0.09 0.05 0.00 0.00 0.00 0.00 0.00 0.00
0.00 0.00 0.00 0.00 0.00 0.01 0.02 0.13 0.11 0.07 0.06 0.11 0.20 0.28 0.48 0.28 0.23 0.36 0.65 0.69 0.56 0.17 0.11 0.04 0.03 0.04 0.01 0.00 0.00 0.00 0.00 0.00
0.00 0.00 0.00 0.00 0.00 0.01 0.01 0.01 0.05 0.08 0.08 0.07 0.07 0.09 0.16 0.17 0.18 0.28 0.32 0.50 0.62 0.28 0.17 0.07 0.02 0.02 0.02 0.00 0.00 0.00 0.00 0.00
0.00 0.00 0.00 0.00 0.00 0.01 0.01 0.01 0.02 0.03 0.09 0.09 0.13 0.12 0.12 0.15 0.25 0.47 0.31 0.26 0.48 0.37 0.19 0.08 0.01 0.01 0.01 0.00 0.00 0.00 0.00 0.00
0.00 0.00 0.00 0.00 0.00 0.00 0.01 0.01 0.01 0.02 0.03 0.04 0.06 0.08 0.07 0.04 0.03 0.22 0.43 0.20 0.19 0.27 0.21 0.09 0.01 0.01 0.03 0.02 0.01 0.00 0.00 0.00
0.00 0.00 0.00 0.00 0.00 0.00 0.01 0.01 0.01 0.01 0.02 0.02 0.02 0.01 0.02 0.01 0.02 0.04 0.27 0.41 0.23 0.13 0.20 0.15 0.07 0.02 0.03 0.07 0.03 0.01 0.00 0.06
0.00 0.00 0.00 0.00 0.00 0.00 0.00 0.01 0.02 0.01 0.01 0.01 0.01 0.01 0.00 0.00 0.01 0.01 0.06 0.25 0.42 0.26 0.19 0.22 0.15 0.10 0.09 0.15 0.16 0.06 0.02 0.07
0.00 0.00 0.00 0.00 0.00 0.00 0.00 0.00 0.01 0.02 0.01 0.01 0.01 0.01 0.01 0.01 0.01 0.00 0.01 0.04 0.17 0.26 0.17 0.19 0.21 0.11 0.07 0.11 0.24 0.19 0.16 0.16
0.00 0.00 0.00 0.00 0.00 0.00 0.00 0.00 0.00 0.02 0.01 0.00 0.00 0.01 0.00 0.00 0.01 0.01 0.01 0.00 0.01 0.05 0.11 0.13 0.16 0.19 0.14 0.10 0.14 0.15 0.15 0.15
0.00 0.00 0.00 0.00 0.00 0.00 0.00 0.00 0.00 0.01 0.01 0.01 0.00 0.00 0.00 0.00 0.00 0.00 0.01 0.01 0.00 0.00 0.03 0.13 0.13 0.13 0.14 0.13 0.13 0.12 0.16 0.12
0.00 0.00 0.00 0.00 0.00 0.00 0.00 0.00 0.01 0.00 0.00 0.01 0.00 0.00 0.00 0.00 0.00 0.00 0.00 0.01 0.01 0.00 0.00 0.02 0.11 0.13 0.11 0.13 0.10 0.08 0.11 0.08
0.00 0.00 0.00 0.00 0.01 0.03 0.01 0.00 0.00 0.00 0.00 0.00 0.00 0.00 0.00 0.00 0.00 0.00 0.00 0.00 0.01 0.00 0.00 0.00 0.00 0.01 0.01 0.05 0.10 0.05 0.03 0.02
0.01 0.01 0.02 0.02 0.05 0.04 0.02 0.02 0.02 0.01 0.02 0.01 0.00 0.00 0.00 0.00 0.00 0.00 0.00 0.00 0.00 0.00 0.00 0.00 0.00 0.00 0.00 0.00 0.01 0.04 0.04 0.05
0.01 0.04 0.06 0.10 0.17 0.19 0.18 0.16 0.17 0.14 0.09 0.03 0.02 0.01 0.01 0.00 0.00 0.00 0.00 0.00 0.00 0.00 0.00 0.00 0.00 0.00 0.00 0.00 0.00 0.00 0.00 0.03
0.06 0.06 0.10 0.16 0.24 0.30 0.30 0.31 0.29 0.18 0.10 0.05 0.06 0.03 0.02 0.04 0.02 0.00 0.00 0.00 0.00 0.00 0.00 0.00 0.00 0.00 0.00 0.00 0.00 0.00 0.01 0.01
0.08 0.09 0.08 0.10 0.13 0.16 0.15 0.13 0.11 0.12 0.11 0.06 0.09 0.07 0.07 0.07 0.04 0.03 0.02 0.01 0.00 0.00 0.00 0.00 0.00 0.00 0.00 0.00 0.00 0.01 0.00 0.00
0.01 0.01 0.02 0.03 0.05 0.03 0.02 0.03 0.04 0.03 0.02 0.06 0.11 0.04 0.08 0.09 0.13 0.16 0.10 0.04 0.08 0.04 0.03 0.03 0.03 0.04 0.07 0.05 0.04 0.02 0.02 0.01
0.00 0.00 0.00 0.00 0.00 0.00 0.00 0.00 0.01 0.03 0.03 0.01 0.01 0.01 0.01 0.03 0.08 0.09 0.08 0.08 0.13 0.09 0.11 0.11 0.10 0.14 0.25 0.17 0.18 0.08 0.04 0.05
0.07 0.03 0.01 0.00 0.00 0.00 0.00 0.00 0.00 0.00 0.00 0.00 0.00 0.00 0.01 0.02 0.03 0.01 0.03 0.06 0.06 0.08 0.09 0.09 0.13 0.16 0.24 0.28 0.37 0.23 0.11 0.08

GFSFLT1_prec_precacc24_078.txt.gz
Total_Precipitation_Accumulation
0.00 0.00 0.00 0.00 0.00 0.00 0.00 0.02 0.03 0.03 0.03 0.07 0.20 0.40 0.58 0.35 0.26 0.69 0.70 1.09 0.85 0.23 0.11 0.08 0.15 0.16 0.07 0.02 0.01 0.00 0.00 0.00
0.00 0.00 0.00 0.00 0.00 0.01 0.01 0.02 0.03 0.03 0.03 0.06 0.14 0.24 0.46 0.26 0.23 0.36 0.67 0.83 1.32 0.64 0.24 0.08 0.09 0.14 0.06 0.01 0.00 0.00 0.00 0.00
0.00 0.00 0.00 0.00 0.00 0.01 0.01 0.01 0.03 0.02 0.01 0.02 0.04 0.07 0.16 0.17 0.19 0.29 0.34 0.53 0.85 0.74 0.36 0.19 0.09 0.10 0.09 0.01 0.01 0.00 0.00 0.00
0.00 0.00 0.00 0.00 0.00 0.00 0.01 0.01 0.01 0.02 0.03 0.04 0.04 0.05 0.08 0.14 0.26 0.47 0.32 0.33 0.64 0.71 0.41 0.33 0.15 0.06 0.05 0.01 0.00 0.00 0.00 0.00
0.00 0.00 0.00 0.00 0.00 0.00 0.01 0.00 0.01 0.02 0.02 0.03 0.03 0.04 0.05 0.03 0.04 0.23 0.43 0.23 0.35 0.63 0.46 0.36 0.21 0.05 0.05 0.02 0.00 0.00 0.00 0.00
0.00 0.00 0.00 0.00 0.00 0.00 0.00 0.01 0.01 0.01 0.02 0.01 0.02 0.01 0.02 0.02 0.02 0.05 0.30 0.44 0.26 0.43 0.43 0.34 0.16 0.06 0.04 0.07 0.02 0.00 0.00 0.03
0.00 0.00 0.00 0.00 0.00 0.00 0.00 0.01 0.01 0.01 0.01 0.01 0.01 0.01 0.01 0.01 0.02 0.02 0.08 0.28 0.52 0.45 0.33 0.28 0.17 0.11 0.09 0.12 0.15 0.06 0.02 0.06
0.00 0.00 0.00 0.00 0.00 0.00 0.00 0.00 0.01 0.01 0.01 0.01 0.02 0.01 0.01 0.01 0.01 0.01 0.02 0.05 0.20 0.36 0.33 0.28 0.24 0.13 0.08 0.11 0.21 0.18 0.15 0.15
0.00 0.00 0.00 0.00 0.00 0.00 0.00 0.00 0.00 0.02 0.01 0.00 0.01 0.01 0.00 0.00 0.01 0.01 0.02 0.01 0.01 0.08 0.24 0.28 0.22 0.21 0.16 0.11 0.14 0.15 0.15 0.15
0.00 0.00 0.00 0.00 0.00 0.00 0.00 0.00 0.00 0.01 0.01 0.01 0.01 0.01 0.00 0.00 0.00 0.00 0.01 0.01 0.01 0.01 0.07 0.20 0.19 0.16 0.17 0.16 0.14 0.12 0.16 0.12
0.00 0.00 0.00 0.00 0.00 0.01 0.00 0.00 0.01 0.00 0.00 0.01 0.01 0.00 0.00 0.00 0.00 0.00 0.00 0.01 0.02 0.01 0.02 0.05 0.16 0.21 0.16 0.17 0.14 0.09 0.11 0.08
0.00 0.00 0.00 0.00 0.02 0.03 0.01 0.01 0.01 0.00 0.00 0.00 0.01 0.00 0.01 0.00 0.00 0.00 0.00 0.00 0.01 0.00 0.01 0.01 0.01 0.04 0.06 0.08 0.12 0.11 0.07 0.03
0.02 0.02 0.02 0.03 0.06 0.05 0.03 0.02 0.02 0.02 0.02 0.01 0.00 0.00 0.01 0.01 0.01 0.00 0.00 0.00 0.00 0.01 0.00 0.00 0.00 0.00 0.02 0.02 0.02 0.07 0.07 0.07
0.02 0.05 0.08 0.11 0.19 0.21 0.21 0.17 0.22 0.19 0.11 0.04 0.02 0.01 0.00 0.00 0.00 0.01 0.01 0.01 0.00 0.00 0.00 0.00 0.00 0.00 0.00 0.00 0.00 0.00 0.00 0.01
0.09 0.08 0.12 0.18 0.27 0.33 0.35 0.40 0.39 0.26 0.12 0.06 0.07 0.03 0.02 0.02 0.01 0.01 0.01 0.01 0.01 0.00 0.00 0.00 0.00 0.00 0.00 0.01 0.01 0.01 0.00 0.00
0.13 0.12 0.12 0.13 0.16 0.19 0.21 0.20 0.18 0.16 0.12 0.07 0.10 0.08 0.08 0.06 0.04 0.04 0.02 0.01 0.01 0.00 0.00 0.01 0.01 0.01 0.00 0.00 0.00 0.00 0.00 0.00
0.06 0.06 0.05 0.06 0.07 0.05 0.06 0.07 0.08 0.04 0.02 0.06 0.11 0.05 0.09 0.11 0.14 0.16 0.10 0.05 0.08 0.05 0.04 0.03 0.04 0.05 0.08 0.02 0.02 0.00 0.00 0.01
0.03 0.03 0.03 0.03 0.02 0.02 0.02 0.01 0.01 0.03 0.03 0.02 0.01 0.01 0.01 0.04 0.08 0.10 0.08 0.09 0.14 0.10 0.12 0.12 0.12 0.15 0.28 0.14 0.16 0.07 0.04 0.05
0.09 0.03 0.01 0.00 0.00 0.00 0.00 0.00 0.00 0.00 0.00 0.01 0.01 0.01 0.01 0.02 0.03 0.01 0.02 0.06 0.07 0.08 0.08 0.09 0.12 0.15 0.21 0.24 0.32 0.21 0.11 0.07

GFSFLT1_prec_precacc24_081.txt.gz
Total_Precipitation_Accumulation
0.00 0.00 0.00 0.00 0.00 0.00 0.00 0.02 0.02 0.02 0.02 0.04 0.09 0.22 0.39 0.25 0.24 0.69 0.72 1.12 0.93 0.31 0.18 0.12 0.16 0.21 0.35 0.23 0.12 0.06 0.01 0.00
0.00 0.00 0.00 0.00 0.00 0.00 0.00 0.02 0.02 0.02 0.02 0.04 0.10 0.17 0.40 0.23 0.22 0.36 0.68 0.86 1.56 0.84 0.42 0.14 0.13 0.16 0.18 0.14 0.12 0.05 0.03 0.01
0.00 0.00 0.00 0.00 0.00 0.00 0.01 0.01 0.02 0.02 0.01 0.01 0.04 0.06 0.14 0.17 0.20 0.29 0.36 0.53 0.93 1.22 0.66 0.42 0.17 0.16 0.18 0.12 0.10 0.07 0.04 0.01
0.00 0.00 0.00 0.00 0.00 0.00 0.00 0.00 0.01 0.02 0.02 0.02 0.03 0.03 0.07 0.14 0.27 0.49 0.33 0.33 0.69 0.90 0.76 0.54 0.32 0.19 0.12 0.04 0.05 0.05 0.01 0.01
0.00 0.00 0.00 0.00 0.00 0.00 0.00 0.00 0.01 0.01 0.02 0.02 0.02 0.02 0.04 0.03 0.04 0.23 0.44 0.23 0.37 0.67 0.71 0.62 0.40 0.23 0.19 0.06 0.04 0.06 0.03 0.01
0.00 0.00 0.00 0.00 0.00 0.00 0.00 0.00 0.00 0.01 0.02 0.01 0.02 0.01 0.01 0.02 0.02 0.06 0.30 0.42 0.23 0.48 0.62 0.68 0.42 0.28 0.18 0.14 0.06 0.04 0.03 0.03
0.00 0.00 0.00 0.00 0.00 0.00 0.00 0.00 0.01 0.01 0.01 0.01 0.01 0.01 0.01 0.02 0.02 0.03 0.08 0.27 0.50 0.55 0.64 0.54 0.51 0.31 0.17 0.14 0.11 0.05 0.02 0.02
0.00 0.00 0.00 0.00 0.00 0.00 0.00 0.00 0.01 0.01 0.01 0.01 0.01 0.02 0.01 0.02 0.02 0.01 0.03 0.06 0.21 0.39 0.52 0.46 0.42 0.33 0.14 0.11 0.14 0.11 0.08 0.07
0.00 0.00 0.00 0.00 0.00 0.00 0.00 0.00 0.00 0.01 0.01 0.00 0.00 0.01 0.01 0.01 0.02 0.02 0.03 0.02 0.02 0.11 0.31 0.38 0.30 0.32 0.24 0.14 0.13 0.13 0.12 0.12
0.00 0.00 0.00 0.00 0.00 0.00 0.00 0.00 0.00 0.01 0.02 0.00 0.01 0.01 0.01 0.01 0.00 0.01 0.03 0.03 0.03 0.02 0.09 0.28 0.31 0.21 0.21 0.20 0.16 0.12 0.15 0.11
0.00 0.00 0.00 0.00 0.00 0.01 0.01 0.00 0.01 0.01 0.03 0.01 0.00 0.00 0.01 0.01 0.00 0.00 0.01 0.02 0.03 0.03 0.03 0.06 0.22 0.29 0.20 0.18 0.15 0.10 0.11 0.08
0.00 0.00 0.00 0.00 0.02 0.03 0.02 0.01 0.01 0.01 0.03 0.00 0.01 0.00 0.01 0.00 0.00 0.00 0.00 0.02 0.03 0.02 0.04 0.02 0.03 0.10 0.13 0.15 0.14 0.12 0.08 0.03
0.03 0.04 0.03 0.03 0.06 0.06 0.04 0.03 0.02 0.03 0.06 0.02 0.00 0.00 0.01 0.01 0.01 0.01 0.00 0.00 0.01 0.02 0.03 0.03 0.01 0.01 0.04 0.07 0.09 0.09 0.08 0.08
0.05 0.07 0.10 0.12 0.20 0.22 0.24 0.19 0.23 0.25 0.15 0.05 0.02 0.01 0.01 0.01 0.01 0.01 0.01 0.01 0.00 0.00 0.02 0.02 0.01 0.01 0.01 0.01 0.02 0.01 0.01 0.03
0.13 0.12 0.15 0.21 0.30 0.35 0.39 0.45 0.44 0.29 0.15 0.07 0.07 0.03 0.02 0.02 0.01 0.01 0.02 0.02 0.01 0.01 0.00 0.00 0.00 0.01 0.01 0.02 0.02 0.02 0.02 0.02
0.18 0.16 0.15 0.16 0.19 0.23 0.26 0.25 0.23 0.21 0.16 0.08 0.10 0.08 0.08 0.07 0.05 0.03 0.02 0.01 0.01 0.01 0.01 0.01 0.01 0.01 0.01 0.01 0.01 0.03 0.04 0.04
0.13 0.11 0.10 0.10 0.10 0.09 0.12 0.14 0.11 0.08 0.05 0.07 0.12 0.06 0.09 0.11 0.14 0.17 0.11 0.06 0.09 0.05 0.05 0.04 0.04 0.06 0.10 0.03 0.02 0.00 0.01 0.01
0.11 0.11 0.08 0.08 0.06 0.04 0.07 0.09 0.08 0.06 0.05 0.04 0.02 0.01 0.02 0.04 0.09 0.11 0.10 0.10 0.15 0.11 0.14 0.13 0.13 0.16 0.29 0.14 0.14 0.05 0.03 0.05
0.17 0.11 0.05 0.04 0.04 0.03 0.04 0.06 0.07 0.05 0.02 0.03 0.03 0.01 0.02 0.03 0.05 0.03 0.04 0.07 0.09 0.10 0.10 0.10 0.13 0.15 0.22 0.23 0.30 0.19 0.09 0.05

GFSFLT1_prec_precacc24_084.txt.gz
Total_Precipitation_Accumulation
0.00 0.00 0.00 0.00 0.00 0.00 0.00 0.01 0.03 0.02 0.02 0.02 0.03 0.04 0.15 0.07 0.13 0.66 0.71 1.17 0.97 0.35 0.22 0.13 0.16 0.22 0.39 0.49 0.43 0.31 0.16 0.04
0.00 0.00 0.00 0.00 0.00 0.00 0.00 0.02 0.04 0.02 0.02 0.03 0.04 0.05 0.11 0.09 0.17 0.36 0.68 0.88 1.60 0.91 0.47 0.17 0.14 0.16 0.21 0.31 0.40 0.24 0.22 0.04
0.00 0.00 0.00 0.00 0.00 0.00 0.00 0.01 0.02 0.01 0.01 0.01 0.02 0.02 0.07 0.11 0.19 0.29 0.36 0.53 0.94 1.26 0.70 0.45 0.21 0.21 0.19 0.31 0.31 0.18 0.16 0.04
0.00 0.00 0.00 0.00 0.00 0.00 0.00 0.01 0.01 0.02 0.01 0.02 0.02 0.03 0.06 0.11 0.27 0.50 0.33 0.35 0.71 0.94 0.88 0.68 0.41 0.31 0.18 0.13 0.22 0.13 0.07 0.05
0.00 0.00 0.00 0.00 0.00 0.00 0.00 0.00 0.01 0.01 0.01 0.02 0.02 0.02 0.03 0.03 0.04 0.24 0.44 0.24 0.41 0.72 0.72 0.65 0.47 0.32 0.31 0.13 0.16 0.15 0.08 0.03
0.00 0.00 0.00 0.00 0.00 0.00 0.00 0.00 0.01 0.01 0.02 0.01 0.01 0.01 0.01 0.02 0.03 0.06 0.30 0.41 0.23 0.50 0.63 0.72 0.53 0.40 0.32 0.21 0.14 0.14 0.09 0.04
0.00 0.00 0.00 0.00 0.00 0.00 0.00 0.01 0.02 0.01 0.01 0.01 0.00 0.01 0.01 0.02 0.03 0.04 0.09 0.27 0.50 0.55 0.66 0.59 0.62 0.41 0.31 0.31 0.18 0.13 0.09 0.04
0.00 0.00 0.00 0.00 0.00 0.00 0.00 0.00 0.01 0.01 0.01 0.01 0.01 0.01 0.01 0.02 0.02 0.02 0.03 0.06 0.20 0.39 0.53 0.56 0.56 0.48 0.27 0.29 0.30 0.17 0.11 0.05
0.00 0.00 0.00 0.00 0.00 0.00 0.00 0.00 0.00 0.01 0.01 0.00 0.00 0.01 0.01 0.01 0.02 0.03 0.03 0.02 0.02 0.11 0.31 0.47 0.43 0.51 0.41 0.27 0.26 0.19 0.16 0.13
0.01 0.00 0.00 0.00 0.00 0.00 0.00 0.00 0.01 0.01 0.02 0.00 0.01 0.00 0.01 0.01 0.01 0.02 0.04 0.04 0.03 0.02 0.09 0.29 0.35 0.28 0.41 0.29 0.20 0.14 0.14 0.13
0.01 0.02 0.01 0.01 0.03 0.07 0.05 0.00 0.02 0.03 0.05 0.01 0.01 0.00 0.01 0.01 0.01 0.01 0.01 0.03 0.04 0.04 0.03 0.06 0.22 0.33 0.28 0.30 0.23 0.14 0.12 0.08
0.02 0.04 0.04 0.09 0.07 0.15 0.15 0.03 0.04 0.02 0.06 0.01 0.01 0.00 0.01 0.01 0.01 0.01 0.01 0.02 0.03 0.03 0.05 0.03 0.05 0.14 0.20 0.23 0.20 0.15 0.11 0.07
0.04 0.05 0.05 0.12 0.19 0.14 0.08 0.04 0.05 0.05 0.07 0.04 0.01 0.01 0.01 0.02 0.01 0.01 0.01 0.01 0.01 0.02 0.04 0.04 0.02 0.03 0.09 0.16 0.16 0.16 0.09 0.10
0.06 0.09 0.12 0.16 0.24 0.26 0.26 0.23 0.26 0.26 0.18 0.09 0.04 0.03 0.01 0.01 0.01 0.02 0.02 0.01 0.00 0.00 0.02 0.04 0.02 0.01 0.03 0.06 0.06 0.09 0.06 0.03
0.14 0.15 0.18 0.24 0.33 0.37 0.45 0.51 0.48 0.30 0.18 0.08 0.08 0.05 0.03 0.02 0.01 0.02 0.02 0.02 0.01 0.01 0.01 0.02 0.02 0.02 0.04 0.05 0.04 0.05 0.08 0.06
0.20 0.19 0.19 0.20 0.23 0.27 0.33 0.33 0.29 0.23 0.19 0.14 0.14 0.09 0.08 0.08 0.06 0.03 0.02 0.02 0.02 0.02 0.01 0.02 0.02 0.02 0.02 0.02 0.03 0.06 0.08 0.10
0.15 0.16 0.14 0.15 0.14 0.13 0.17 0.22 0.18 0.12 0.06 0.09 0.13 0.07 0.10 0.12 0.14 0.17 0.11 0.07 0.09 0.06 0.06 0.05 0.05 0.06 0.11 0.04 0.02 0.01 0.03 0.06
0.15 0.16 0.14 0.14 0.11 0.09 0.13 0.15 0.13 0.12 0.09 0.06 0.05 0.04 0.04 0.06 0.10 0.11 0.11 0.11 0.16 0.11 0.14 0.14 0.13 0.16 0.31 0.15 0.15 0.05 0.03 0.05
0.27 0.17 0.14 0.11 0.10 0.08 0.10 0.12 0.14 0.12 0.07 0.07 0.06 0.06 0.08 0.07 0.08 0.08 0.09 0.11 0.11 0.11 0.11 0.10 0.13 0.16 0.24 0.24 0.31 0.19 0.09 0.06